CPA125 VHHH-YSSY

Flight info

Callsign CPA125
Flight time 8h 31m
Altitude 34000
Route DALOL V652 SABNO/N0502F350 A583 ZAM A461 BONDA/N0497F370 A461 BUTPA DCT VEGPU DCT RUKSI DCT YUSEF/N0489F390 DCT NOLES DCT 26S138E DCT OOM DCT APOMA Y52 VELGI Y105 TARAL Y59 TESAT
Aircraft A35K/H-SDE2E3GHIJ3J4J5LM1ORWXY/LB1D1

Departure

Time 2026-04-23 22:58
Airport Hong Kong International Airport (VHHH)

Arrival

Time 2026-04-24 07:30
Airport Sydney Kingsford Smith International Airport (YSSY)
Time Latitude Longitude Altitude Speed Heading
2026-04-23 22:38 22.31206 113.91798 37 ft 0 kts 251°
2026-04-23 22:48 22.31207 113.91800 37 ft 2 kts 251°
2026-04-23 22:48 22.31213 113.91826 36 ft 4 kts 268°
2026-04-23 22:48 22.31213 113.91852 34 ft 1 kts 265°
2026-04-23 22:48 22.31213 113.91853 34 ft 0 kts 265°
2026-04-23 22:49 22.31213 113.91852 34 ft 0 kts 265°
2026-04-23 22:51 22.31214 113.91849 37 ft 1 kts 277°
2026-04-23 22:51 22.31216 113.91845 36 ft 1 kts 292°
2026-04-23 22:51 22.31221 113.91843 37 ft 1 kts 316°
2026-04-23 22:51 22.31226 113.91841 37 ft 1 kts 334°
2026-04-23 22:52 22.31243 113.91834 38 ft 4 kts 347°
2026-04-23 22:52 22.31279 113.91827 38 ft 7 kts 351°
2026-04-23 22:52 22.31331 113.91823 38 ft 8 kts
2026-04-23 22:52 22.31392 113.91814 38 ft 10 kts 344°
2026-04-23 22:53 22.31463 113.91789 38 ft 11 kts 341°
2026-04-23 22:53 22.31507 113.91772 38 ft 7 kts 334°
2026-04-23 22:53 22.31525 113.91723 38 ft 8 kts 268°
2026-04-23 22:53 22.31506 113.91655 38 ft 11 kts 251°
2026-04-23 22:54 22.31478 113.91566 38 ft 14 kts 251°
2026-04-23 22:54 22.31443 113.91458 38 ft 16 kts 250°
2026-04-23 22:54 22.31403 113.91334 38 ft 19 kts 251°
2026-04-23 22:54 22.31358 113.91194 38 ft 21 kts 251°
2026-04-23 22:55 22.31309 113.91041 38 ft 22 kts 251°
2026-04-23 22:55 22.31255 113.90878 38 ft 23 kts 251°
2026-04-23 22:55 22.31201 113.90709 38 ft 24 kts 251°
2026-04-23 22:55 22.31144 113.90533 37 ft 25 kts 251°
2026-04-23 22:56 22.31087 113.90355 38 ft 26 kts 251°
2026-04-23 22:56 22.31028 113.90171 38 ft 26 kts 251°
2026-04-23 22:56 22.30975 113.90009 38 ft 16 kts 251°
2026-04-23 22:56 22.30938 113.89897 38 ft 12 kts 250°
2026-04-23 22:57 22.30940 113.89826 38 ft 10 kts 305°
2026-04-23 22:57 22.31005 113.89786 36 ft 13 kts 338°
2026-04-23 22:57 22.31090 113.89794 36 ft 13 kts 48°
2026-04-23 22:57 22.31124 113.89894 36 ft 21 kts 72°
2026-04-23 22:58 22.31220 113.90198 36 ft 71 kts 71°
2026-04-23 22:58 22.31443 113.90892 37 ft 123 kts 70°
2026-04-23 22:58 22.31779 113.91926 41 ft 167 kts 69°
2026-04-23 22:58 22.32155 113.93106 636 ft 161 kts 69°
2026-04-23 22:59 22.32507 113.94226 1243 ft 158 kts 69°
2026-04-23 22:59 22.32882 113.95386 1501 ft 171 kts 68°
2026-04-23 22:59 22.33279 113.96660 1706 ft 188 kts 71°
2026-04-23 22:59 22.33578 113.98107 1925 ft 205 kts 77°
2026-04-23 23:00 22.33803 113.99652 2192 ft 217 kts 82°
2026-04-23 23:00 22.33731 114.01316 2535 ft 226 kts 101°
2026-04-23 23:00 22.33147 114.02904 3047 ft 229 kts 122°
2026-04-23 23:00 22.32112 114.04176 3629 ft 224 kts 143°
2026-04-23 23:01 22.30830 114.05104 4238 ft 219 kts 152°
2026-04-23 23:01 22.29533 114.05935 4847 ft 214 kts 153°
2026-04-23 23:01 22.28271 114.06743 5391 ft 209 kts 153°
2026-04-23 23:01 22.26983 114.07568 5998 ft 224 kts 153°
2026-04-23 23:02 22.25556 114.08391 6682 ft 239 kts 162°
2026-04-23 23:02 22.23913 114.08713 7475 ft 243 kts 182°
2026-04-23 23:02 22.22193 114.08715 8323 ft 252 kts 185°
2026-04-23 23:02 22.20404 114.08677 9206 ft 261 kts 186°
2026-04-23 23:03 22.18565 114.08694 10068 ft 270 kts 180°
2026-04-23 23:03 22.16749 114.09216 10860 ft 281 kts 157°
2026-04-23 23:03 22.15200 114.10578 11708 ft 291 kts 130°
2026-04-23 23:03 22.14165 114.12443 12566 ft 294 kts 120°
2026-04-23 23:04 22.13249 114.14426 13421 ft 294 kts 119°
2026-04-23 23:04 22.12341 114.16402 14217 ft 296 kts 120°
2026-04-23 23:04 22.11390 114.18438 14553 ft 311 kts 120°
2026-04-23 23:04 22.10389 114.20561 14806 ft 326 kts 120°
2026-04-23 23:05 22.09336 114.22784 15074 ft 341 kts 120°
2026-04-23 23:05 22.08167 114.25075 15320 ft 354 kts 126°
2026-04-23 23:05 22.06546 114.27085 15537 ft 361 kts 143°
2026-04-23 23:05 22.04522 114.28779 15802 ft 372 kts 147°
2026-04-23 23:06 22.02391 114.30440 16036 ft 385 kts 148°
2026-04-23 23:06 22.00191 114.32153 16278 ft 397 kts 147°
2026-04-23 23:06 21.97952 114.33906 16499 ft 407 kts 147°
2026-04-23 23:06 21.95633 114.35727 16712 ft 418 kts 147°
2026-04-23 23:07 21.93254 114.37606 16958 ft 427 kts 147°
2026-04-23 23:07 21.90832 114.39510 17194 ft 436 kts 147°
2026-04-23 23:07 21.88386 114.41506 17523 ft 443 kts 143°
2026-04-23 23:07 21.86187 114.43878 17919 ft 452 kts 131°
2026-04-23 23:08 21.84459 114.46721 18295 ft 460 kts 118°
2026-04-23 23:08 21.83291 114.49943 18650 ft 465 kts 108°
2026-04-23 23:08 21.82408 114.53313 18991 ft 469 kts 107°
2026-04-23 23:08 21.81553 114.56701 19317 ft 471 kts 107°
2026-04-23 23:09 21.80685 114.60120 19637 ft 474 kts 107°
2026-04-23 23:09 21.79803 114.63563 19941 ft 477 kts 107°
2026-04-23 23:09 21.78915 114.67012 20262 ft 480 kts 107°
2026-04-23 23:09 21.78018 114.70482 20600 ft 483 kts 107°
2026-04-23 23:10 21.77114 114.73976 20937 ft 485 kts 107°
2026-04-23 23:10 21.76213 114.77446 21268 ft 488 kts 107°
2026-04-23 23:10 21.75278 114.80975 21605 ft 490 kts 109°
2026-04-23 23:10 21.74039 114.84397 21914 ft 490 kts 119°
2026-04-23 23:11 21.72306 114.87538 22254 ft 490 kts 127°
2026-04-23 23:11 21.70334 114.90538 22600 ft 491 kts 130°
2026-04-23 23:11 21.68267 114.93468 22947 ft 493 kts 131°
2026-04-23 23:11 21.66154 114.96379 23295 ft 496 kts 131°
2026-04-23 23:12 21.64014 114.99313 23607 ft 498 kts 131°
2026-04-23 23:12 21.61906 115.02226 23890 ft 501 kts 131°
2026-04-23 23:12 21.59779 115.05185 24225 ft 502 kts 131°
2026-04-23 23:12 21.57647 115.08167 24527 ft 504 kts 131°
2026-04-23 23:13 21.55503 115.11161 24847 ft 506 kts 132°
2026-04-23 23:13 21.53143 115.13963 25160 ft 504 kts 140°
2026-04-23 23:13 21.50455 115.16375 25492 ft 502 kts 147°
2026-04-23 23:13 21.47644 115.18589 25829 ft 503 kts 149°
2026-04-23 23:14 21.44760 115.20740 26187 ft 505 kts 150°
2026-04-23 23:14 21.41837 115.22863 26554 ft 507 kts 150°
2026-04-23 23:14 21.38937 115.24951 26928 ft 509 kts 150°
2026-04-23 23:14 21.35995 115.27073 27333 ft 511 kts 150°
2026-04-23 23:15 21.33039 115.29214 27712 ft 514 kts 150°
2026-04-23 23:15 21.30072 115.31371 28065 ft 516 kts 150°
2026-04-23 23:15 21.27090 115.33547 28415 ft 519 kts 150°
2026-04-23 23:15 21.24086 115.35741 28757 ft 522 kts 150°
2026-04-23 23:16 21.21087 115.37934 29076 ft 524 kts 150°
2026-04-23 23:16 21.18061 115.40144 29461 ft 525 kts 150°
2026-04-23 23:16 21.15043 115.42349 29982 ft 523 kts 150°
2026-04-23 23:16 21.12074 115.44517 30365 ft 522 kts 150°
2026-04-23 23:17 21.09071 115.46707 30719 ft 522 kts 150°
2026-04-23 23:17 21.06069 115.48894 31058 ft 522 kts 150°
2026-04-23 23:17 21.04037 115.50374 31364 ft 519 kts 150°
2026-04-23 23:17 21.00094 115.53245 31940 ft 517 kts 150°
2026-04-23 23:18 20.98116 115.54685 32159 ft 517 kts 150°
2026-04-23 23:18 20.95137 115.56851 32476 ft 517 kts 150°
2026-04-23 23:18 20.91185 115.59723 32946 ft 516 kts 150°
2026-04-23 23:18 20.89177 115.61182 33157 ft 515 kts 150°
2026-04-23 23:19 20.86218 115.63330 33502 ft 515 kts 150°
2026-04-23 23:19 20.83250 115.65485 33801 ft 514 kts 150°
2026-04-23 23:19 20.80316 115.67612 33934 ft 518 kts 150°
2026-04-23 23:20 20.74327 115.71962 33939 ft 520 kts 150°
2026-04-23 23:20 20.68345 115.76293 33939 ft 521 kts 150°
2026-04-23 23:21 20.62335 115.80637 33939 ft 521 kts 150°
2026-04-23 23:21 20.56328 115.84978 33938 ft 520 kts 150°
2026-04-23 23:22 20.50322 115.89315 33941 ft 520 kts 150°
2026-04-23 23:22 20.44363 115.93615 33941 ft 520 kts 150°
2026-04-23 23:23 20.38361 115.97925 33940 ft 520 kts 152°
2026-04-23 23:23 20.31856 116.01062 33944 ft 508 kts 169°
2026-04-23 23:24 20.24948 116.01769 33946 ft 494 kts 189°
2026-04-23 23:24 20.18160 116.00989 33944 ft 493 kts 192°
2026-04-23 23:25 20.11355 115.99986 33943 ft 493 kts 192°
2026-04-23 23:25 20.04551 115.98996 33944 ft 493 kts 192°
2026-04-23 23:26 19.97745 115.98044 33942 ft 493 kts 192°
2026-04-23 23:26 19.90935 115.97110 33945 ft 493 kts 191°
2026-04-23 23:27 19.84119 115.96178 33947 ft 493 kts 191°
2026-04-23 23:27 19.77306 115.95245 33951 ft 493 kts 191°
2026-04-23 23:28 19.70533 115.94317 33949 ft 493 kts 191°
2026-04-23 23:28 19.63714 115.93385 33944 ft 494 kts 191°
2026-04-23 23:29 19.56894 115.92452 33952 ft 494 kts 191°
2026-04-23 23:29 19.50113 115.91526 33953 ft 494 kts 191°
2026-04-23 23:30 19.43296 115.90595 33947 ft 495 kts 191°
2026-04-23 23:30 19.36446 115.89661 33948 ft 496 kts 191°
2026-04-23 23:31 19.29588 115.88727 33948 ft 496 kts 191°
2026-04-23 23:31 19.22729 115.87794 33946 ft 497 kts 191°
2026-04-23 23:32 19.15864 115.86860 33943 ft 497 kts 191°
2026-04-23 23:32 19.09035 115.85932 33945 ft 498 kts 191°
2026-04-23 23:33 19.02114 115.85271 33975 ft 503 kts 182°
2026-04-23 23:33 18.98622 115.85622 34262 ft 506 kts 173°
2026-04-23 23:33 18.95211 115.86567 34620 ft 508 kts 163°
2026-04-23 23:33 18.91953 115.88034 34894 ft 511 kts 158°
2026-04-23 23:34 18.88753 115.89689 34942 ft 516 kts 156°
2026-04-23 23:34 18.82375 115.93220 34947 ft 517 kts 155°
2026-04-23 23:35 18.76059 115.96757 34952 ft 516 kts 155°
2026-04-23 23:35 18.69685 116.00275 34951 ft 515 kts 156°
2026-04-23 23:36 18.63325 116.03753 34951 ft 515 kts 156°
2026-04-23 23:36 18.56988 116.07208 34952 ft 515 kts 156°
2026-04-23 23:37 18.50624 116.10676 34953 ft 514 kts 155°
2026-04-23 23:37 18.44268 116.14139 34955 ft 513 kts 155°
2026-04-23 23:38 18.37921 116.17595 34954 ft 513 kts 155°
2026-04-23 23:38 18.31573 116.21048 34956 ft 513 kts 156°
2026-04-23 23:39 18.25241 116.24490 34953 ft 513 kts 156°
2026-04-23 23:39 18.18899 116.27933 34951 ft 512 kts 155°
2026-04-23 23:40 18.12593 116.31355 34962 ft 513 kts 155°
2026-04-23 23:40 18.06244 116.34797 34962 ft 513 kts 155°
2026-04-23 23:41 17.99899 116.38236 34956 ft 513 kts 155°
2026-04-23 23:41 17.93544 116.41676 34960 ft 513 kts 155°
2026-04-23 23:42 17.87223 116.45094 34962 ft 513 kts 155°
2026-04-23 23:42 17.80877 116.48523 34964 ft 512 kts 155°
2026-04-23 23:43 17.74522 116.51958 34968 ft 512 kts 155°
2026-04-23 23:43 17.68191 116.55373 34965 ft 512 kts 155°
2026-04-23 23:44 17.61891 116.58768 34965 ft 511 kts 155°
2026-04-23 23:44 17.55574 116.62170 34967 ft 510 kts 155°
2026-04-23 23:45 17.49244 116.65576 34966 ft 510 kts 154°
2026-04-23 23:45 17.42925 116.68975 34968 ft 510 kts 154°
2026-04-23 23:46 17.36613 116.72367 34969 ft 510 kts 154°
2026-04-23 23:46 17.30309 116.75753 34969 ft 510 kts 154°
2026-04-23 23:47 17.24033 116.79120 34971 ft 510 kts 154°
2026-04-23 23:47 17.17722 116.82503 34970 ft 509 kts 154°
2026-04-23 23:48 17.11424 116.85877 34970 ft 508 kts 154°
2026-04-23 23:48 17.05126 116.89249 34970 ft 508 kts 154°
2026-04-23 23:49 16.95674 116.94304 34971 ft 508 kts 154°
2026-04-23 23:49 16.89388 116.97663 34971 ft 508 kts 154°
2026-04-23 23:50 16.83137 117.01000 34971 ft 508 kts 154°
2026-04-23 23:50 16.76844 117.04357 34972 ft 508 kts 154°
2026-04-23 23:51 16.70542 117.07717 34974 ft 508 kts 154°
2026-04-23 23:51 16.64249 117.11069 34974 ft 508 kts 154°
2026-04-23 23:52 16.57995 117.14398 34974 ft 508 kts 154°
2026-04-23 23:52 16.51695 117.17749 34972 ft 508 kts 154°
2026-04-23 23:53 16.45398 117.21097 34970 ft 506 kts 153°
2026-04-23 23:53 16.39165 117.24415 34972 ft 506 kts 154°
2026-04-23 23:54 16.32887 117.27743 34972 ft 506 kts 154°
2026-04-23 23:54 16.26601 117.31073 34972 ft 506 kts 154°
2026-04-23 23:55 16.20333 117.34394 34971 ft 506 kts 154°
2026-04-23 23:55 16.14050 117.37721 34971 ft 506 kts 153°
2026-04-23 23:56 16.07775 117.41042 34975 ft 506 kts 153°
2026-04-23 23:56 16.01497 117.44362 34975 ft 506 kts 153°
2026-04-23 23:57 15.95224 117.47677 34971 ft 506 kts 153°
2026-04-23 23:57 15.88986 117.50971 34972 ft 506 kts 153°
2026-04-23 23:58 15.82711 117.54282 34974 ft 506 kts 153°
2026-04-23 23:58 15.76430 117.57594 34974 ft 506 kts 153°
2026-04-23 23:59 15.70176 117.60890 34974 ft 506 kts 153°
2026-04-23 23:59 15.63890 117.64200 34974 ft 506 kts 153°
2026-04-24 00:00 15.57601 117.67510 34976 ft 506 kts 153°
2026-04-24 00:00 15.51353 117.70796 34974 ft 506 kts 153°
2026-04-24 00:01 15.45071 117.74097 34971 ft 506 kts 153°
2026-04-24 00:01 15.38779 117.77401 34972 ft 507 kts 153°
2026-04-24 00:02 15.32486 117.80704 34970 ft 506 kts 153°
2026-04-24 00:02 15.26200 117.84001 34971 ft 506 kts 153°
2026-04-24 00:03 15.19939 117.87282 34971 ft 506 kts 153°
2026-04-24 00:03 15.13652 117.90575 34970 ft 506 kts 153°
2026-04-24 00:04 15.07355 117.93871 34975 ft 507 kts 153°
2026-04-24 00:04 15.01048 117.97169 34971 ft 507 kts 153°
2026-04-24 00:05 14.94761 118.00456 34970 ft 506 kts 153°
2026-04-24 00:05 14.88507 118.03722 34965 ft 506 kts 153°
2026-04-24 00:06 14.82214 118.07007 34969 ft 506 kts 153°
2026-04-24 00:06 14.75919 118.10292 34965 ft 506 kts 154°
2026-04-24 00:07 14.70693 118.13016 34969 ft 506 kts 153°
2026-04-24 00:07 14.64399 118.16295 34969 ft 506 kts 154°
2026-04-24 00:08 14.57089 118.20101 34969 ft 506 kts 153°
2026-04-24 00:08 14.51817 118.22844 34968 ft 506 kts 154°
2026-04-24 00:09 14.45569 118.26094 34966 ft 506 kts 154°
2026-04-24 00:09 14.39277 118.29364 34966 ft 506 kts 154°
2026-04-24 00:10 14.32977 118.32636 34969 ft 506 kts 154°
2026-04-24 00:10 14.26693 118.35902 34968 ft 506 kts 154°
2026-04-24 00:11 14.20442 118.39143 34968 ft 505 kts 154°
2026-04-24 00:11 14.14166 118.42394 34967 ft 505 kts 154°
2026-04-24 00:12 14.07876 118.45652 34969 ft 505 kts 154°
2026-04-24 00:12 14.01590 118.48906 34969 ft 505 kts 154°
2026-04-24 00:13 13.95351 118.52135 34969 ft 505 kts 154°
2026-04-24 00:13 13.89052 118.55392 34965 ft 505 kts 154°
2026-04-24 00:14 13.82777 118.58634 34967 ft 505 kts 154°
2026-04-24 00:14 13.76493 118.61881 34966 ft 505 kts 154°
2026-04-24 00:15 13.70248 118.65104 34968 ft 505 kts 154°
2026-04-24 00:15 13.63957 118.68350 34968 ft 505 kts 154°
2026-04-24 00:16 13.57661 118.71597 34969 ft 505 kts 154°
2026-04-24 00:16 13.51361 118.74843 34963 ft 505 kts 154°
2026-04-24 00:17 13.45103 118.78063 34963 ft 505 kts 154°
2026-04-24 00:17 13.38816 118.81298 34963 ft 505 kts 154°
2026-04-24 00:18 13.32521 118.84535 34966 ft 505 kts 154°
2026-04-24 00:18 13.26231 118.87767 34965 ft 505 kts 154°
2026-04-24 00:19 13.19936 118.91001 34962 ft 505 kts 154°
2026-04-24 00:19 13.13689 118.94208 34964 ft 505 kts 155°
2026-04-24 00:20 13.07390 118.97441 34965 ft 506 kts 155°
2026-04-24 00:20 13.01081 119.00677 34965 ft 506 kts 155°
2026-04-24 00:21 12.94782 119.03912 34960 ft 506 kts 155°
2026-04-24 00:21 12.88471 119.07140 34964 ft 506 kts 155°
2026-04-24 00:22 12.82205 119.10344 34960 ft 506 kts 155°
2026-04-24 00:22 12.75901 119.13569 34964 ft 507 kts 155°
2026-04-24 00:23 12.69582 119.16800 34958 ft 507 kts 155°
2026-04-24 00:23 12.63253 119.20035 34958 ft 507 kts 155°
2026-04-24 00:24 12.56980 119.23239 34958 ft 507 kts 155°
2026-04-24 00:24 12.50664 119.26463 34960 ft 507 kts 155°
2026-04-24 00:25 12.44347 119.29687 34959 ft 508 kts 155°
2026-04-24 00:25 12.38008 119.32919 34961 ft 509 kts 155°
2026-04-24 00:26 12.31669 119.36150 34958 ft 509 kts 155°
2026-04-24 00:26 12.25370 119.39359 34958 ft 509 kts 155°
2026-04-24 00:27 12.19034 119.42585 34958 ft 509 kts 155°
2026-04-24 00:27 12.12692 119.45812 34957 ft 509 kts 155°
2026-04-24 00:28 12.06349 119.49038 34961 ft 509 kts 155°
2026-04-24 00:28 11.99985 119.52272 34958 ft 510 kts 155°
2026-04-24 00:29 11.93661 119.55485 34958 ft 510 kts 155°
2026-04-24 00:29 11.87291 119.58720 34958 ft 510 kts 155°
2026-04-24 00:30 11.80929 119.61949 34960 ft 510 kts 155°
2026-04-24 00:30 11.74564 119.65177 34960 ft 510 kts 155°
2026-04-24 00:31 11.68205 119.68404 34961 ft 510 kts 155°
2026-04-24 00:31 11.61890 119.71616 34958 ft 510 kts 155°
2026-04-24 00:32 11.55538 119.74845 34958 ft 510 kts 155°
2026-04-24 00:32 11.49187 119.78072 34957 ft 510 kts 155°
2026-04-24 00:33 11.42845 119.81292 34959 ft 510 kts 155°
2026-04-24 00:33 11.36495 119.84516 34960 ft 509 kts 155°
2026-04-24 00:34 11.30167 119.87726 34958 ft 508 kts 155°
2026-04-24 00:34 11.23868 119.90920 34958 ft 508 kts 155°
2026-04-24 00:35 11.17525 119.94134 34958 ft 508 kts 155°
2026-04-24 00:35 11.11191 119.97343 34958 ft 508 kts 155°
2026-04-24 00:36 11.04851 120.00553 34961 ft 508 kts 155°
2026-04-24 00:36 10.98557 120.03734 34960 ft 507 kts 155°
2026-04-24 00:37 10.92226 120.06930 34958 ft 507 kts 155°
2026-04-24 00:37 10.85898 120.10124 34957 ft 507 kts 155°
2026-04-24 00:38 10.79567 120.13318 34958 ft 507 kts 155°
2026-04-24 00:38 10.73237 120.16511 34957 ft 507 kts 154°
2026-04-24 00:39 10.66926 120.19691 34957 ft 506 kts 154°
2026-04-24 00:39 10.60614 120.22871 34959 ft 506 kts 154°
2026-04-24 00:40 10.54350 120.26025 34957 ft 506 kts 154°
2026-04-24 00:40 10.48042 120.29200 34958 ft 506 kts 154°
2026-04-24 00:41 10.41724 120.32378 34957 ft 505 kts 154°
2026-04-24 00:41 10.35426 120.35544 34959 ft 505 kts 154°
2026-04-24 00:42 10.29169 120.38690 34957 ft 505 kts 154°
2026-04-24 00:42 10.22872 120.41855 34957 ft 505 kts 154°
2026-04-24 00:43 10.16563 120.45025 34957 ft 505 kts 154°
2026-04-24 00:43 10.10251 120.48175 34958 ft 505 kts 155°
2026-04-24 00:44 10.03946 120.51322 34959 ft 505 kts 155°
2026-04-24 00:44 9.97640 120.54473 34957 ft 505 kts 154°
2026-04-24 00:45 9.91337 120.57622 34958 ft 505 kts 155°
2026-04-24 00:45 9.85064 120.60755 34958 ft 505 kts 155°
2026-04-24 00:46 9.78758 120.63904 34957 ft 505 kts 155°
2026-04-24 00:46 9.72451 120.67053 34957 ft 504 kts 154°
2026-04-24 00:47 9.66165 120.70194 34959 ft 503 kts 155°
2026-04-24 00:47 9.59913 120.73305 34957 ft 503 kts 154°
2026-04-24 00:48 9.53616 120.76439 34960 ft 503 kts 154°
2026-04-24 00:48 9.47331 120.79568 34959 ft 503 kts 154°
2026-04-24 00:49 9.41046 120.82697 34956 ft 503 kts 154°
2026-04-24 00:49 9.34762 120.85825 34958 ft 503 kts 154°
2026-04-24 00:50 9.28474 120.88950 34957 ft 503 kts 154°
2026-04-24 00:50 9.22219 120.92061 34958 ft 503 kts 154°
2026-04-24 00:51 9.15929 120.95188 34960 ft 503 kts 155°
2026-04-24 00:51 9.09685 120.98291 34960 ft 502 kts 155°
2026-04-24 00:52 9.03426 121.01399 34957 ft 499 kts 155°
2026-04-24 00:52 8.97200 121.04491 34959 ft 498 kts 154°
2026-04-24 00:53 8.90979 121.07578 34958 ft 499 kts 154°
2026-04-24 00:53 8.84737 121.10673 34960 ft 499 kts 154°
2026-04-24 00:54 8.78516 121.13759 34957 ft 499 kts 154°
2026-04-24 00:54 8.73330 121.16334 34958 ft 499 kts 154°
2026-04-24 00:55 8.67105 121.19419 34957 ft 498 kts 154°
2026-04-24 00:55 8.60872 121.22501 34959 ft 498 kts 154°
2026-04-24 00:56 8.54633 121.25587 34956 ft 500 kts 154°
2026-04-24 00:56 8.48387 121.28681 34960 ft 500 kts 154°
2026-04-24 00:57 8.42142 121.31772 34962 ft 499 kts 154°
2026-04-24 00:58 8.32812 121.36388 34962 ft 499 kts 154°
2026-04-24 00:58 8.26567 121.39475 34958 ft 500 kts 154°
2026-04-24 00:59 8.20319 121.42562 34957 ft 500 kts 154°
2026-04-24 00:59 8.14066 121.45651 34957 ft 499 kts 154°
2026-04-24 01:00 8.07873 121.48708 34957 ft 499 kts 154°
2026-04-24 01:00 8.01645 121.51781 34961 ft 498 kts 153°
2026-04-24 01:01 7.95411 121.54861 34961 ft 499 kts 154°
2026-04-24 01:01 7.89180 121.57936 34957 ft 498 kts 154°
2026-04-24 01:02 7.82940 121.61014 34958 ft 499 kts 154°
2026-04-24 01:02 7.76707 121.64082 34957 ft 497 kts 153°
2026-04-24 01:03 7.70492 121.67146 34955 ft 498 kts 153°
2026-04-24 01:03 7.64292 121.70202 34956 ft 499 kts 153°
2026-04-24 01:04 7.58044 121.73280 34955 ft 499 kts 153°
2026-04-24 01:04 7.51807 121.76351 34955 ft 499 kts 153°
2026-04-24 01:05 7.45563 121.79424 34955 ft 499 kts 153°
2026-04-24 01:05 7.39354 121.82477 34955 ft 499 kts 153°
2026-04-24 01:06 7.33124 121.85542 34963 ft 498 kts 153°
2026-04-24 01:06 7.26886 121.88613 34963 ft 498 kts 153°
2026-04-24 01:07 7.20655 121.91680 34963 ft 498 kts 153°
2026-04-24 01:07 7.14423 121.94746 34963 ft 498 kts 153°
2026-04-24 01:08 7.08191 121.97812 34967 ft 499 kts 153°
2026-04-24 01:08 7.01942 122.00884 34964 ft 500 kts 153°
2026-04-24 01:09 6.95712 122.03948 34964 ft 500 kts 153°
2026-04-24 01:09 6.89484 122.07071 34960 ft 500 kts 151°
2026-04-24 01:10 6.83426 122.10552 34964 ft 501 kts 149°
2026-04-24 01:10 6.77409 122.14106 34961 ft 501 kts 149°
2026-04-24 01:11 6.71400 122.17591 34961 ft 501 kts 149°
2026-04-24 01:11 6.65335 122.21063 34960 ft 501 kts 150°
2026-04-24 01:12 6.59265 122.24526 34961 ft 501 kts 150°
2026-04-24 01:12 6.53200 122.27990 34959 ft 501 kts 150°
2026-04-24 01:13 6.47117 122.31462 34958 ft 501 kts 150°
2026-04-24 01:13 6.41086 122.34902 34960 ft 501 kts 149°
2026-04-24 01:14 6.35022 122.38361 34958 ft 500 kts 149°
2026-04-24 01:14 6.28959 122.41819 34957 ft 500 kts 149°
2026-04-24 01:15 6.22913 122.45268 34958 ft 500 kts 149°
2026-04-24 01:15 6.16856 122.48721 34957 ft 500 kts 149°
2026-04-24 01:16 6.10804 122.52171 34954 ft 500 kts 149°
2026-04-24 01:16 6.04754 122.55619 34955 ft 499 kts 149°
2026-04-24 01:17 5.98743 122.59043 34951 ft 498 kts 149°
2026-04-24 01:17 5.92714 122.62477 34954 ft 498 kts 150°
2026-04-24 01:18 5.86672 122.65917 34952 ft 498 kts 150°
2026-04-24 01:18 5.80640 122.69351 34953 ft 498 kts 150°
2026-04-24 01:19 5.74644 122.72763 34954 ft 498 kts 149°
2026-04-24 01:19 5.68628 122.76186 34952 ft 496 kts 149°
2026-04-24 01:20 5.62621 122.79603 34950 ft 495 kts 149°
2026-04-24 01:20 5.56647 122.83001 34949 ft 495 kts 149°
2026-04-24 01:21 5.50654 122.86408 34951 ft 495 kts 149°
2026-04-24 01:21 5.44643 122.89826 34951 ft 495 kts 150°
2026-04-24 01:22 5.38641 122.93237 34950 ft 496 kts 149°
2026-04-24 01:22 5.32669 122.96628 34950 ft 495 kts 149°
2026-04-24 01:23 5.26676 123.00034 34952 ft 496 kts 150°
2026-04-24 01:23 5.20670 123.03444 34953 ft 495 kts 149°
2026-04-24 01:24 5.14681 123.06842 34948 ft 492 kts 149°
2026-04-24 01:24 5.08714 123.10234 34951 ft 493 kts 149°
2026-04-24 01:25 5.02748 123.13618 34952 ft 491 kts 149°
2026-04-24 01:25 4.96808 123.16988 34952 ft 490 kts 149°
2026-04-24 01:26 4.90857 123.20377 34951 ft 493 kts 149°
2026-04-24 01:26 4.84907 123.23747 34949 ft 495 kts 150°
2026-04-24 01:27 4.78899 123.27143 34947 ft 494 kts 149°
2026-04-24 01:27 4.72920 123.30529 34946 ft 491 kts 149°
2026-04-24 01:28 4.66965 123.33914 34950 ft 493 kts 149°
2026-04-24 01:28 4.61027 123.37278 34949 ft 493 kts 149°
2026-04-24 01:29 4.55024 123.40679 34945 ft 492 kts 149°
2026-04-24 01:29 4.49108 123.44036 34947 ft 492 kts 149°
2026-04-24 01:30 4.43127 123.47423 34950 ft 494 kts 149°
2026-04-24 01:30 4.37133 123.50814 34949 ft 495 kts 149°
2026-04-24 01:31 4.31129 123.54211 34950 ft 495 kts 149°
2026-04-24 01:31 4.25134 123.57605 34949 ft 495 kts 149°
2026-04-24 01:32 4.19176 123.60977 34947 ft 495 kts 149°
2026-04-24 01:32 4.13181 123.64370 34947 ft 495 kts 149°
2026-04-24 01:33 4.07181 123.67765 34949 ft 494 kts 149°
2026-04-24 01:33 4.01191 123.71154 34946 ft 494 kts 149°
2026-04-24 01:34 3.95246 123.74585 34947 ft 493 kts 148°
2026-04-24 01:34 3.89360 123.78122 34947 ft 493 kts 148°
2026-04-24 01:35 3.83465 123.81668 34947 ft 493 kts 148°
2026-04-24 01:35 3.77568 123.85191 34947 ft 494 kts 148°
2026-04-24 01:36 3.71698 123.88687 34944 ft 494 kts 148°
2026-04-24 01:36 3.65790 123.92203 34944 ft 494 kts 148°
2026-04-24 01:37 3.59889 123.95715 34948 ft 494 kts 148°
2026-04-24 01:37 3.53987 123.99227 34947 ft 493 kts 148°
2026-04-24 01:38 3.48080 124.02742 34944 ft 493 kts 148°
2026-04-24 01:38 3.42176 124.06256 34944 ft 493 kts 148°
2026-04-24 01:39 3.36265 124.09772 34947 ft 493 kts 148°
2026-04-24 01:39 3.30401 124.13261 34947 ft 493 kts 148°
2026-04-24 01:40 3.24490 124.16776 34947 ft 493 kts 148°
2026-04-24 01:40 3.18591 124.20284 34947 ft 493 kts 148°
2026-04-24 01:41 3.13673 124.23208 34945 ft 494 kts 148°
2026-04-24 01:41 3.07776 124.26714 34944 ft 494 kts 148°
2026-04-24 01:42 3.00905 124.30798 34941 ft 494 kts 148°
2026-04-24 01:42 2.95945 124.33747 34941 ft 494 kts 148°
2026-04-24 01:43 2.90076 124.37235 34941 ft 494 kts 148°
2026-04-24 01:43 2.84157 124.40752 34941 ft 494 kts 148°
2026-04-24 01:44 2.78240 124.44267 34941 ft 494 kts 148°
2026-04-24 01:44 2.72333 124.47776 34943 ft 494 kts 148°
2026-04-24 01:45 2.66465 124.51262 34941 ft 493 kts 148°
2026-04-24 01:45 2.60558 124.54771 34941 ft 493 kts 148°
2026-04-24 01:46 2.54669 124.58268 34938 ft 492 kts 148°
2026-04-24 01:46 2.48773 124.61769 34939 ft 493 kts 148°
2026-04-24 01:47 2.42871 124.65274 34941 ft 493 kts 148°
2026-04-24 01:47 2.37002 124.68759 34941 ft 493 kts 148°
2026-04-24 01:48 2.31093 124.72267 34939 ft 493 kts 148°
2026-04-24 01:48 2.25195 124.75767 34938 ft 492 kts 148°
2026-04-24 01:49 2.19342 124.79241 34943 ft 492 kts 148°
2026-04-24 01:49 2.13440 124.82744 34941 ft 493 kts 148°
2026-04-24 01:50 2.07543 124.86244 34938 ft 493 kts 148°
2026-04-24 01:50 2.04598 124.87992 35071 ft 491 kts 148°
2026-04-24 01:50 2.01664 124.89729 35464 ft 488 kts 148°
2026-04-24 01:50 1.98781 124.91416 35830 ft 485 kts 148°
2026-04-24 01:51 1.95866 124.93113 36144 ft 484 kts 149°
2026-04-24 01:51 1.92947 124.94810 36423 ft 484 kts 149°
2026-04-24 01:51 1.90036 124.96504 36714 ft 482 kts 148°
2026-04-24 01:51 1.87135 124.98194 36936 ft 484 kts 148°
2026-04-24 01:52 1.84209 124.99901 36974 ft 488 kts 148°
2026-04-24 01:52 1.78366 125.03313 36980 ft 488 kts 148°
2026-04-24 01:53 1.72505 125.06736 36999 ft 488 kts 148°
2026-04-24 01:53 1.66641 125.10161 37002 ft 488 kts 148°
2026-04-24 01:54 1.60783 125.13581 37007 ft 488 kts 148°
2026-04-24 01:54 1.54902 125.17015 37002 ft 488 kts 148°
2026-04-24 01:55 1.49082 125.20413 36997 ft 487 kts 148°
2026-04-24 01:55 1.43226 125.23831 36991 ft 487 kts 148°
2026-04-24 01:56 1.37366 125.27252 36979 ft 486 kts 148°
2026-04-24 01:56 1.31519 125.30664 36974 ft 486 kts 148°
2026-04-24 01:57 1.25677 125.34075 36971 ft 486 kts 148°
2026-04-24 01:57 1.19883 125.37456 36957 ft 485 kts 148°
2026-04-24 01:58 1.14047 125.40862 36955 ft 485 kts 148°
2026-04-24 01:58 1.08206 125.44271 36941 ft 485 kts 148°
2026-04-24 01:59 1.02414 125.47651 36941 ft 485 kts 148°
2026-04-24 01:59 0.96592 125.51049 36936 ft 485 kts 148°
2026-04-24 02:00 0.90766 125.54448 36937 ft 484 kts 148°
2026-04-24 02:00 0.84949 125.57842 36939 ft 483 kts 148°
2026-04-24 02:01 0.79144 125.61229 36939 ft 483 kts 148°
2026-04-24 02:01 0.73335 125.64619 36936 ft 483 kts 148°
2026-04-24 02:02 0.67564 125.67986 36936 ft 483 kts 148°
2026-04-24 02:02 0.61756 125.71374 36935 ft 483 kts 148°
2026-04-24 02:03 0.53045 125.76456 36934 ft 483 kts 148°
2026-04-24 02:03 0.47240 125.79843 36934 ft 482 kts 148°
2026-04-24 02:04 0.41473 125.83207 36932 ft 482 kts 148°
2026-04-24 02:04 0.35671 125.86592 36934 ft 482 kts 148°
2026-04-24 02:05 0.29879 125.89971 36931 ft 482 kts 148°
2026-04-24 02:05 0.24083 125.93352 36928 ft 482 kts 148°
2026-04-24 02:06 0.18282 125.96736 36929 ft 482 kts 148°
2026-04-24 02:06 0.12518 126.00099 36931 ft 482 kts 148°
2026-04-24 02:07 0.06709 126.03487 36929 ft 482 kts 148°
2026-04-24 02:07 0.00891 126.06880 36928 ft 482 kts 148°
2026-04-24 02:08 -0.04890 126.10252 36927 ft 481 kts 147°
2026-04-24 02:08 -0.10631 126.13601 36928 ft 481 kts 147°
2026-04-24 02:09 -0.16412 126.16974 36928 ft 481 kts 147°
2026-04-24 02:09 -0.22187 126.20343 36927 ft 480 kts 147°
2026-04-24 02:10 -0.27968 126.23716 36928 ft 480 kts 147°
2026-04-24 02:10 -0.33748 126.27087 36928 ft 480 kts 147°
2026-04-24 02:11 -0.39481 126.30431 36925 ft 480 kts 147°
2026-04-24 02:11 -0.45243 126.33793 36925 ft 480 kts 147°
2026-04-24 02:12 -0.51011 126.37158 36927 ft 480 kts 147°
2026-04-24 02:12 -0.56789 126.40529 36927 ft 480 kts 147°
2026-04-24 02:13 -0.62511 126.43867 36924 ft 480 kts 147°
2026-04-24 02:13 -0.68286 126.47236 36925 ft 480 kts 147°
2026-04-24 02:14 -0.74059 126.50604 36924 ft 480 kts 148°
2026-04-24 02:14 -0.79822 126.53967 36925 ft 479 kts 148°
2026-04-24 02:15 -0.85543 126.57305 36928 ft 479 kts 148°
2026-04-24 02:15 -0.91294 126.60660 36925 ft 479 kts 148°
2026-04-24 02:16 -0.97042 126.64014 36920 ft 477 kts 147°
2026-04-24 02:16 -1.02776 126.67359 36923 ft 476 kts 147°
2026-04-24 02:17 -1.08493 126.70696 36919 ft 476 kts 147°
2026-04-24 02:17 -1.14219 126.74038 36920 ft 476 kts 147°
2026-04-24 02:18 -1.19937 126.77376 36922 ft 476 kts 148°
2026-04-24 02:18 -1.25615 126.80689 36922 ft 475 kts 148°
2026-04-24 02:19 -1.31319 126.84018 36919 ft 474 kts 148°
2026-04-24 02:19 -1.37026 126.87349 36920 ft 474 kts 148°
2026-04-24 02:20 -1.42723 126.90675 36922 ft 474 kts 148°
2026-04-24 02:20 -1.48394 126.93985 36923 ft 474 kts 148°
2026-04-24 02:21 -1.54093 126.97313 36916 ft 475 kts 148°
2026-04-24 02:21 -1.59825 127.00660 36920 ft 478 kts 148°
2026-04-24 02:22 -1.65557 127.04007 36919 ft 476 kts 148°
2026-04-24 02:22 -1.71280 127.07348 36919 ft 476 kts 148°
2026-04-24 02:23 -1.76966 127.10669 36922 ft 476 kts 148°
2026-04-24 02:23 -1.82685 127.14009 36921 ft 476 kts 148°
2026-04-24 02:24 -1.88428 127.17364 36920 ft 481 kts 148°
2026-04-24 02:24 -1.94220 127.20748 36919 ft 482 kts 148°
2026-04-24 02:25 -2.00015 127.24133 36921 ft 482 kts 148°
2026-04-24 02:25 -2.05806 127.27514 36919 ft 480 kts 148°
2026-04-24 02:26 -2.11548 127.30869 36920 ft 480 kts 148°
2026-04-24 02:26 -2.17323 127.34243 36919 ft 481 kts 147°
2026-04-24 02:27 -2.23103 127.37621 36919 ft 481 kts 147°
2026-04-24 02:27 -2.28889 127.41003 36919 ft 481 kts 147°
2026-04-24 02:28 -2.34675 127.44384 36917 ft 481 kts 147°
2026-04-24 02:28 -2.40456 127.47764 36917 ft 481 kts 147°
2026-04-24 02:29 -2.46205 127.51124 36919 ft 481 kts 147°
2026-04-24 02:29 -2.51970 127.54494 36919 ft 480 kts 147°
2026-04-24 02:30 -2.57731 127.57862 36919 ft 480 kts 147°
2026-04-24 02:30 -2.63504 127.61238 36919 ft 479 kts 147°
2026-04-24 02:31 -2.69272 127.64612 36917 ft 480 kts 147°
2026-04-24 02:31 -2.75005 127.67965 36918 ft 480 kts 147°
2026-04-24 02:32 -2.80775 127.71340 36917 ft 480 kts 147°
2026-04-24 02:32 -2.86538 127.74712 36917 ft 481 kts 147°
2026-04-24 02:33 -2.91347 127.77525 36917 ft 481 kts 147°
2026-04-24 02:33 -2.97139 127.80914 36916 ft 481 kts 147°
2026-04-24 02:34 -3.02893 127.84282 36914 ft 481 kts 147°
2026-04-24 02:34 -3.08692 127.87676 36917 ft 482 kts 147°
2026-04-24 02:35 -3.14473 127.91060 36911 ft 482 kts 147°
2026-04-24 02:35 -3.20261 127.94448 36912 ft 482 kts 147°
2026-04-24 02:36 -3.26030 127.97825 36909 ft 482 kts 147°
2026-04-24 02:36 -3.31818 128.01215 36913 ft 482 kts 147°
2026-04-24 02:37 -3.37614 128.04611 36908 ft 483 kts 147°
2026-04-24 02:37 -3.43421 128.08013 36909 ft 483 kts 147°
2026-04-24 02:38 -3.49231 128.11416 36906 ft 483 kts 147°
2026-04-24 02:38 -3.55031 128.14814 36910 ft 483 kts 147°
2026-04-24 02:39 -3.60882 128.18087 36910 ft 485 kts 153°
2026-04-24 02:39 -3.67266 128.20354 36911 ft 487 kts 160°
2026-04-24 02:40 -3.73765 128.22308 36910 ft 488 kts 161°
2026-04-24 02:40 -3.80251 128.24205 36908 ft 488 kts 161°
2026-04-24 02:41 -3.86779 128.26128 36905 ft 488 kts 161°
2026-04-24 02:41 -3.93300 128.28065 36903 ft 489 kts 161°
2026-04-24 02:42 -3.99837 128.30012 36908 ft 490 kts 161°
2026-04-24 02:42 -4.06381 128.31961 36908 ft 490 kts 161°
2026-04-24 02:43 -4.12928 128.33910 36911 ft 490 kts 161°
2026-04-24 02:43 -4.19423 128.35844 36910 ft 490 kts 161°
2026-04-24 02:44 -4.25983 128.37798 36909 ft 492 kts 161°
2026-04-24 02:44 -4.32553 128.39756 36908 ft 493 kts 161°
2026-04-24 02:45 -4.39136 128.41717 36911 ft 493 kts 161°
2026-04-24 02:45 -4.45710 128.43676 36911 ft 493 kts 161°
2026-04-24 02:46 -4.52290 128.45637 36909 ft 494 kts 161°
2026-04-24 02:46 -4.58895 128.47607 36909 ft 495 kts 161°
2026-04-24 02:47 -4.65506 128.49578 36908 ft 495 kts 161°
2026-04-24 02:47 -4.72071 128.51536 36908 ft 495 kts 161°
2026-04-24 02:48 -4.78670 128.53505 36908 ft 495 kts 161°
2026-04-24 02:48 -4.85296 128.55482 36909 ft 496 kts 161°
2026-04-24 02:49 -4.91889 128.57449 36908 ft 496 kts 161°
2026-04-24 02:49 -4.98531 128.59432 36908 ft 496 kts 161°
2026-04-24 02:50 -5.05155 128.61409 36909 ft 497 kts 161°
2026-04-24 02:50 -5.11776 128.63386 36908 ft 496 kts 161°
2026-04-24 02:51 -5.18355 128.65351 36913 ft 496 kts 161°
2026-04-24 02:51 -5.24983 128.67331 36908 ft 495 kts 161°
2026-04-24 02:52 -5.31585 128.69304 36908 ft 495 kts 161°
2026-04-24 02:52 -5.38179 128.71275 36908 ft 495 kts 161°
2026-04-24 02:53 -5.44783 128.73249 36906 ft 495 kts 161°
2026-04-24 02:53 -5.51370 128.75219 36908 ft 495 kts 161°
2026-04-24 02:54 -5.57988 128.77198 36911 ft 495 kts 161°
2026-04-24 02:54 -5.64602 128.79176 36911 ft 495 kts 161°
2026-04-24 02:55 -5.71179 128.81145 36911 ft 495 kts 161°
2026-04-24 02:55 -5.77793 128.83124 36911 ft 495 kts 161°
2026-04-24 02:56 -5.84406 128.85104 36908 ft 495 kts 161°
2026-04-24 02:56 -5.90976 128.87071 36909 ft 495 kts 161°
2026-04-24 02:57 -5.97602 128.89056 36911 ft 496 kts 161°
2026-04-24 02:57 -6.04192 128.91030 36911 ft 496 kts 161°
2026-04-24 02:58 -6.10818 128.93016 36911 ft 496 kts 161°
2026-04-24 02:58 -6.17436 128.94999 36911 ft 496 kts 161°
2026-04-24 02:59 -6.24010 128.96970 36911 ft 496 kts 161°
2026-04-24 02:59 -6.30635 128.98958 36911 ft 497 kts 161°
2026-04-24 03:00 -6.37269 129.00948 36914 ft 497 kts 161°
2026-04-24 03:00 -6.43908 129.02940 36914 ft 497 kts 161°
2026-04-24 03:01 -6.50537 129.04929 36907 ft 497 kts 161°
2026-04-24 03:01 -6.57181 129.06924 36911 ft 497 kts 161°
2026-04-24 03:02 -6.63768 129.08903 36911 ft 497 kts 161°
2026-04-24 03:02 -6.70400 129.10895 36911 ft 497 kts 161°
2026-04-24 03:03 -6.77036 129.12889 36909 ft 497 kts 161°
2026-04-24 03:03 -6.83669 129.14882 36908 ft 496 kts 161°
2026-04-24 03:04 -6.90293 129.16874 36908 ft 496 kts 161°
2026-04-24 03:04 -6.96878 129.18854 36908 ft 496 kts 161°
2026-04-24 03:05 -7.03498 129.20846 36908 ft 496 kts 161°
2026-04-24 03:05 -7.10109 129.22835 36911 ft 496 kts 160°
2026-04-24 03:06 -7.16736 129.24830 36908 ft 496 kts 160°
2026-04-24 03:06 -7.23356 129.26823 36908 ft 497 kts 160°
2026-04-24 03:07 -7.29982 129.28819 36908 ft 496 kts 160°
2026-04-24 03:07 -7.36608 129.30815 36908 ft 497 kts 160°
2026-04-24 03:08 -7.46510 129.33800 36908 ft 497 kts 160°
2026-04-24 03:09 -7.53143 129.35800 36909 ft 497 kts 160°
2026-04-24 03:09 -7.59771 129.37799 36908 ft 497 kts 160°
2026-04-24 03:10 -7.66407 129.39801 36914 ft 497 kts 160°
2026-04-24 03:10 -7.72997 129.41790 36914 ft 497 kts 160°
2026-04-24 03:11 -7.79637 129.43795 36911 ft 497 kts 160°
2026-04-24 03:11 -7.86274 129.45800 36911 ft 497 kts 160°
2026-04-24 03:12 -7.92915 129.47806 36914 ft 498 kts 160°
2026-04-24 03:12 -7.99517 129.49802 36917 ft 498 kts 160°
2026-04-24 03:13 -8.06173 129.51814 36914 ft 498 kts 160°
2026-04-24 03:13 -8.12822 129.53824 36914 ft 498 kts 160°
2026-04-24 03:14 -8.19468 129.55835 36913 ft 499 kts 160°
2026-04-24 03:14 -8.26129 129.57851 36914 ft 501 kts 160°
2026-04-24 03:15 -8.32817 129.59876 36916 ft 501 kts 160°
2026-04-24 03:15 -8.39454 129.61886 36917 ft 501 kts 160°
2026-04-24 03:16 -8.46144 129.63913 36915 ft 501 kts 160°
2026-04-24 03:16 -8.52842 129.65943 36914 ft 501 kts 160°
2026-04-24 03:17 -8.59471 129.68104 36914 ft 500 kts 157°
2026-04-24 03:17 -8.65967 129.70625 36914 ft 499 kts 156°
2026-04-24 03:18 -8.72421 129.73160 36914 ft 500 kts 156°
2026-04-24 03:18 -8.78937 129.75657 36918 ft 501 kts 156°
2026-04-24 03:19 -8.85465 129.78125 36916 ft 502 kts 157°
2026-04-24 03:19 -8.92012 129.80594 36918 ft 502 kts 157°
2026-04-24 03:20 -8.98524 129.83052 36919 ft 502 kts 156°
2026-04-24 03:20 -9.05062 129.85525 36920 ft 503 kts 156°
2026-04-24 03:21 -9.11627 129.88008 36916 ft 504 kts 156°
2026-04-24 03:21 -9.18188 129.90491 36916 ft 504 kts 156°
2026-04-24 03:22 -9.24762 129.92980 36915 ft 504 kts 156°
2026-04-24 03:22 -9.30217 129.95045 36915 ft 504 kts 157°
2026-04-24 03:23 -9.36812 129.97544 36919 ft 506 kts 157°
2026-04-24 03:23 -9.43409 130.00044 36914 ft 506 kts 157°
2026-04-24 03:24 -9.50012 130.02547 36914 ft 506 kts 157°
2026-04-24 03:24 -9.57681 130.05455 36913 ft 506 kts 157°
2026-04-24 03:25 -9.63170 130.07539 36914 ft 506 kts 157°
2026-04-24 03:25 -9.69776 130.10046 36914 ft 507 kts 156°
2026-04-24 03:26 -9.76384 130.12556 36917 ft 507 kts 157°
2026-04-24 03:26 -9.82993 130.15067 36917 ft 507 kts 157°
2026-04-24 03:27 -9.89616 130.17585 36918 ft 510 kts 157°
2026-04-24 03:27 -9.96224 130.20097 36914 ft 511 kts 157°
2026-04-24 03:28 -10.02883 130.22630 36913 ft 510 kts 157°
2026-04-24 03:28 -10.09535 130.25162 36914 ft 511 kts 157°
2026-04-24 03:29 -10.16187 130.27695 36916 ft 510 kts 157°
2026-04-24 03:29 -10.22844 130.30230 36918 ft 510 kts 157°
2026-04-24 03:30 -10.29487 130.32761 36920 ft 510 kts 157°
2026-04-24 03:30 -10.36100 130.35283 36923 ft 511 kts 157°
2026-04-24 03:31 -10.42755 130.37821 36919 ft 510 kts 157°
2026-04-24 03:31 -10.49407 130.40360 36922 ft 511 kts 157°
2026-04-24 03:32 -10.56054 130.42898 36923 ft 510 kts 157°
2026-04-24 03:32 -10.62712 130.45440 36922 ft 511 kts 157°
2026-04-24 03:33 -10.69362 130.47981 36926 ft 511 kts 157°
2026-04-24 03:33 -10.76018 130.50527 36926 ft 511 kts 157°
2026-04-24 03:34 -10.82647 130.53061 36924 ft 511 kts 157°
2026-04-24 03:34 -10.89313 130.55613 36926 ft 511 kts 158°
2026-04-24 03:35 -10.95974 130.58164 36929 ft 511 kts 157°
2026-04-24 03:35 -11.02638 130.60717 36928 ft 511 kts 158°
2026-04-24 03:36 -11.09295 130.63268 36928 ft 512 kts 158°
2026-04-24 03:36 -11.15957 130.65823 36924 ft 511 kts 157°
2026-04-24 03:37 -11.22578 130.68363 36925 ft 512 kts 157°
2026-04-24 03:37 -11.29238 130.70919 36925 ft 511 kts 158°
2026-04-24 03:38 -11.35895 130.73475 36925 ft 511 kts 158°
2026-04-24 03:38 -11.42557 130.76035 36923 ft 511 kts 158°
2026-04-24 03:39 -11.49219 130.78596 36925 ft 511 kts 158°
2026-04-24 03:39 -11.55879 130.81157 36930 ft 511 kts 158°
2026-04-24 03:40 -11.62489 130.83699 36927 ft 511 kts 158°
2026-04-24 03:40 -11.69149 130.86263 36927 ft 511 kts 158°
2026-04-24 03:41 -11.75806 130.88827 36932 ft 511 kts 158°
2026-04-24 03:41 -11.82482 130.91400 36934 ft 512 kts 158°
2026-04-24 03:42 -11.89156 130.93972 36936 ft 512 kts 158°
2026-04-24 03:42 -11.95808 130.96540 36940 ft 513 kts 158°
2026-04-24 03:43 -12.02486 130.99118 36935 ft 512 kts 158°
2026-04-24 03:43 -12.09150 131.01691 36936 ft 511 kts 158°
2026-04-24 03:44 -12.15813 131.04265 36938 ft 512 kts 158°
2026-04-24 03:44 -12.22482 131.06844 36937 ft 511 kts 158°
2026-04-24 03:45 -12.29145 131.09421 36935 ft 511 kts 158°
2026-04-24 03:45 -12.35796 131.11995 36937 ft 511 kts 158°
2026-04-24 03:46 -12.42416 131.14559 36937 ft 511 kts 159°
2026-04-24 03:46 -12.49072 131.17137 36937 ft 512 kts 159°
2026-04-24 03:47 -12.55742 131.19723 36935 ft 512 kts 159°
2026-04-24 03:47 -12.62422 131.22314 36936 ft 513 kts 159°
2026-04-24 03:48 -12.69088 131.24917 36939 ft 512 kts 158°
2026-04-24 03:48 -12.75647 131.27676 36942 ft 512 kts 157°
2026-04-24 03:49 -12.82220 131.30505 36938 ft 512 kts 157°
2026-04-24 03:49 -12.88804 131.33316 36939 ft 512 kts 157°
2026-04-24 03:50 -12.95400 131.36113 36943 ft 512 kts 157°
2026-04-24 03:50 -13.01989 131.38902 36940 ft 511 kts 158°
2026-04-24 03:51 -13.08518 131.41666 36943 ft 512 kts 158°
2026-04-24 03:51 -13.15094 131.44454 36941 ft 510 kts 158°
2026-04-24 03:52 -13.21678 131.47247 36942 ft 511 kts 158°
2026-04-24 03:52 -13.28250 131.50037 36945 ft 510 kts 159°
2026-04-24 03:53 -13.34821 131.52826 36944 ft 510 kts 158°
2026-04-24 03:53 -13.41382 131.55615 36946 ft 510 kts 158°
2026-04-24 03:54 -13.47914 131.58393 36945 ft 510 kts 159°
2026-04-24 03:54 -13.54485 131.61184 36949 ft 512 kts 159°
2026-04-24 03:55 -13.61060 131.63983 36953 ft 510 kts 159°
2026-04-24 03:55 -13.67638 131.66786 36956 ft 512 kts 158°
2026-04-24 03:56 -13.74177 131.69575 36948 ft 511 kts 159°
2026-04-24 03:56 -13.80772 131.72387 36952 ft 511 kts 159°
2026-04-24 03:57 -13.87339 131.75193 36956 ft 511 kts 159°
2026-04-24 03:57 -13.93918 131.78000 36955 ft 510 kts 159°
2026-04-24 03:58 -14.00439 131.80785 36954 ft 510 kts 159°
2026-04-24 03:58 -14.06998 131.83587 36957 ft 509 kts 159°
2026-04-24 03:59 -14.13554 131.86391 36958 ft 509 kts 159°
2026-04-24 03:59 -14.20083 131.89188 36960 ft 509 kts 159°
2026-04-24 04:00 -14.26578 131.91971 36963 ft 508 kts 159°
2026-04-24 04:00 -14.33112 131.94771 36965 ft 508 kts 160°
2026-04-24 04:01 -14.39637 131.97570 36965 ft 508 kts 159°
2026-04-24 04:01 -14.46172 132.00377 36972 ft 508 kts 159°
2026-04-24 04:02 -14.52708 132.03184 36968 ft 509 kts 159°
2026-04-24 04:02 -14.59207 132.05975 36971 ft 508 kts 159°
2026-04-24 04:03 -14.65754 132.08788 36971 ft 509 kts 159°
2026-04-24 04:03 -14.72297 132.11604 36972 ft 509 kts 159°
2026-04-24 04:04 -14.78858 132.14430 36976 ft 510 kts 159°
2026-04-24 04:04 -14.85416 132.17255 36977 ft 511 kts 159°
2026-04-24 04:05 -14.91936 132.20065 36980 ft 510 kts 159°
2026-04-24 04:05 -14.98496 132.22895 36982 ft 510 kts 159°
2026-04-24 04:06 -15.05052 132.25725 36983 ft 510 kts 159°
2026-04-24 04:06 -15.11615 132.28560 36986 ft 510 kts 159°
2026-04-24 04:07 -15.17066 132.30916 36984 ft 510 kts 159°
2026-04-24 04:07 -15.24695 132.34215 36986 ft 511 kts 159°
2026-04-24 04:08 -15.31261 132.37057 36986 ft 511 kts 159°
2026-04-24 04:08 -15.37831 132.39903 36988 ft 511 kts 159°
2026-04-24 04:09 -15.43279 132.42264 36986 ft 511 kts 159°
2026-04-24 04:09 -15.49834 132.45107 36988 ft 511 kts 159°
2026-04-24 04:10 -15.56401 132.47957 36988 ft 511 kts 159°
2026-04-24 04:10 -15.62917 132.50786 36994 ft 511 kts 159°
2026-04-24 04:11 -15.72773 132.55071 37001 ft 512 kts 160°
2026-04-24 04:11 -15.79354 132.57933 36998 ft 512 kts 160°
2026-04-24 04:12 -15.85895 132.60781 36998 ft 512 kts 160°
2026-04-24 04:12 -15.92471 132.63646 36999 ft 512 kts 160°
2026-04-24 04:13 -15.99049 132.66514 37001 ft 513 kts 160°
2026-04-24 04:13 -16.05634 132.69386 37002 ft 513 kts 160°
2026-04-24 04:14 -16.12217 132.72260 37001 ft 513 kts 160°
2026-04-24 04:14 -16.18753 132.75116 37006 ft 513 kts 160°
2026-04-24 04:15 -16.25336 132.77994 37003 ft 513 kts 160°
2026-04-24 04:15 -16.31922 132.80876 37004 ft 513 kts 160°
2026-04-24 04:16 -16.38504 132.83758 37005 ft 513 kts 160°
2026-04-24 04:16 -16.45047 132.86625 37009 ft 513 kts 160°
2026-04-24 04:17 -16.51633 132.89513 37009 ft 513 kts 160°
2026-04-24 04:17 -16.58209 132.92399 37015 ft 513 kts 160°
2026-04-24 04:18 -16.64801 132.95294 37014 ft 514 kts 160°
2026-04-24 04:18 -16.71397 132.98192 37015 ft 514 kts 160°
2026-04-24 04:19 -16.77997 133.01095 37017 ft 514 kts 160°
2026-04-24 04:19 -16.84579 133.03993 37021 ft 513 kts 160°
2026-04-24 04:20 -16.91116 133.06872 37021 ft 513 kts 160°
2026-04-24 04:20 -16.97707 133.09777 37021 ft 513 kts 160°
2026-04-24 04:21 -17.04295 133.12683 37028 ft 513 kts 160°
2026-04-24 04:21 -17.10840 133.15572 37026 ft 513 kts 161°
2026-04-24 04:22 -17.17425 133.18481 37026 ft 513 kts 161°
2026-04-24 04:22 -17.24009 133.21393 37026 ft 513 kts 161°
2026-04-24 04:23 -17.30585 133.24303 37028 ft 513 kts 161°
2026-04-24 04:23 -17.37148 133.27210 37027 ft 512 kts 161°
2026-04-24 04:24 -17.43711 133.30118 37028 ft 512 kts 161°
2026-04-24 04:24 -17.50239 133.33013 37029 ft 512 kts 161°
2026-04-24 04:25 -17.56804 133.35928 37026 ft 511 kts 161°
2026-04-24 04:25 -17.63358 133.38839 37029 ft 511 kts 161°
2026-04-24 04:26 -17.69908 133.41751 37029 ft 511 kts 161°
2026-04-24 04:26 -17.76454 133.44665 37031 ft 510 kts 161°
2026-04-24 04:27 -17.82927 133.47548 37030 ft 509 kts 161°
2026-04-24 04:27 -17.89450 133.50454 37034 ft 509 kts 161°
2026-04-24 04:28 -17.95966 133.53360 37036 ft 508 kts 161°
2026-04-24 04:28 -18.02467 133.56262 37028 ft 508 kts 161°
2026-04-24 04:29 -18.08971 133.59167 37033 ft 507 kts 161°
2026-04-24 04:29 -18.15466 133.62071 37034 ft 508 kts 161°
2026-04-24 04:30 -18.21963 133.64978 37022 ft 507 kts 161°
2026-04-24 04:30 -18.28415 133.67868 37041 ft 506 kts 161°
2026-04-24 04:31 -18.34898 133.70773 37030 ft 506 kts 161°
2026-04-24 04:31 -18.41391 133.73685 37027 ft 507 kts 161°
2026-04-24 04:32 -18.47883 133.76603 37035 ft 507 kts 161°
2026-04-24 04:32 -18.54337 133.79504 37049 ft 506 kts 161°
2026-04-24 04:33 -18.60820 133.82421 37061 ft 506 kts 162°
2026-04-24 04:33 -18.67305 133.85342 37043 ft 506 kts 161°
2026-04-24 04:34 -18.73789 133.88264 37044 ft 506 kts 161°
2026-04-24 04:34 -18.80234 133.91171 37046 ft 506 kts 161°
2026-04-24 04:35 -18.86717 133.94098 37045 ft 506 kts 162°
2026-04-24 04:35 -18.93182 133.97020 37047 ft 505 kts 162°
2026-04-24 04:36 -18.99654 133.99947 37047 ft 505 kts 162°
2026-04-24 04:36 -19.06128 134.02877 37058 ft 505 kts 162°
2026-04-24 04:37 -19.12553 134.05788 37051 ft 504 kts 162°
2026-04-24 04:37 -19.19017 134.08720 37050 ft 504 kts 162°
2026-04-24 04:38 -19.25478 134.11651 37048 ft 504 kts 162°
2026-04-24 04:38 -19.31920 134.14577 37054 ft 504 kts 162°
2026-04-24 04:39 -19.38322 134.17487 37055 ft 503 kts 162°
2026-04-24 04:39 -19.44768 134.20420 37055 ft 503 kts 162°
2026-04-24 04:40 -19.51205 134.23351 37057 ft 503 kts 162°
2026-04-24 04:40 -19.57641 134.26286 37056 ft 502 kts 162°
2026-04-24 04:41 -19.64053 134.29210 37056 ft 502 kts 162°
2026-04-24 04:41 -19.70450 134.32132 37062 ft 502 kts 162°
2026-04-24 04:42 -19.76872 134.35066 37060 ft 502 kts 162°
2026-04-24 04:42 -19.83289 134.38000 37062 ft 502 kts 162°
2026-04-24 04:43 -19.89709 134.40939 37066 ft 502 kts 162°
2026-04-24 04:43 -19.96142 134.43886 37066 ft 503 kts 162°
2026-04-24 04:44 -20.02572 134.46835 37069 ft 503 kts 162°
2026-04-24 04:44 -20.08960 134.49767 37066 ft 503 kts 162°
2026-04-24 04:45 -20.15389 134.52721 37068 ft 503 kts 162°
2026-04-24 04:45 -20.21821 134.55678 37070 ft 503 kts 162°
2026-04-24 04:46 -20.28249 134.58636 37076 ft 503 kts 162°
2026-04-24 04:46 -20.34695 134.61606 37078 ft 503 kts 163°
2026-04-24 04:47 -20.41083 134.64552 37075 ft 503 kts 163°
2026-04-24 04:47 -20.47505 134.67516 37068 ft 502 kts 163°
2026-04-24 04:48 -20.53926 134.70481 37082 ft 502 kts 163°
2026-04-24 04:48 -20.60346 134.73449 37087 ft 502 kts 163°
2026-04-24 04:49 -20.66761 134.76418 37078 ft 502 kts 163°
2026-04-24 04:49 -20.73171 134.79387 37088 ft 502 kts 163°
2026-04-24 04:50 -20.79585 134.82361 37089 ft 502 kts 163°
2026-04-24 04:50 -20.85967 134.85323 37078 ft 502 kts 163°
2026-04-24 04:51 -20.92391 134.88306 37093 ft 503 kts 163°
2026-04-24 04:51 -20.98816 134.91293 37097 ft 502 kts 163°
2026-04-24 04:52 -21.05228 134.94278 37086 ft 502 kts 163°
2026-04-24 04:52 -21.11650 134.97269 37102 ft 503 kts 163°
2026-04-24 04:53 -21.18025 135.00241 37093 ft 502 kts 163°
2026-04-24 04:53 -21.24433 135.03233 37094 ft 501 kts 163°
2026-04-24 04:54 -21.30817 135.06215 37093 ft 500 kts 163°
2026-04-24 04:54 -21.37197 135.09197 37097 ft 500 kts 163°
2026-04-24 04:55 -21.43572 135.12182 37281 ft 498 kts 163°
2026-04-24 04:55 -21.46732 135.13732 37674 ft 498 kts 161°
2026-04-24 04:55 -21.49838 135.15371 38007 ft 498 kts 160°
2026-04-24 04:56 -21.52935 135.17054 38300 ft 498 kts 160°
2026-04-24 04:56 -21.55981 135.18718 38570 ft 498 kts 160°
2026-04-24 04:56 -21.59075 135.20400 38826 ft 497 kts 160°
2026-04-24 04:56 -21.62161 135.22065 39039 ft 497 kts 160°
2026-04-24 04:57 -21.67321 135.24822 39094 ft 498 kts 160°
2026-04-24 04:57 -21.73529 135.28129 39099 ft 496 kts 161°
2026-04-24 04:58 -21.80716 135.31955 39101 ft 495 kts 161°
2026-04-24 04:58 -21.85891 135.34714 39102 ft 495 kts 161°
2026-04-24 04:59 -21.92035 135.37992 39101 ft 495 kts 161°
2026-04-24 04:59 -21.98213 135.41295 39114 ft 494 kts 161°
2026-04-24 05:00 -22.04366 135.44590 39107 ft 493 kts 161°
2026-04-24 05:00 -22.10513 135.47880 39110 ft 493 kts 161°
2026-04-24 05:01 -22.16660 135.51173 39110 ft 493 kts 161°
2026-04-24 05:01 -22.22774 135.54451 39108 ft 493 kts 161°
2026-04-24 05:02 -22.28916 135.57751 39114 ft 493 kts 161°
2026-04-24 05:02 -22.35042 135.61046 39110 ft 491 kts 162°
2026-04-24 05:03 -22.41155 135.64335 39120 ft 491 kts 162°
2026-04-24 05:03 -22.47274 135.67629 39119 ft 491 kts 162°
2026-04-24 05:04 -22.53382 135.70922 39118 ft 491 kts 162°
2026-04-24 05:04 -22.59459 135.74201 39124 ft 490 kts 162°
2026-04-24 05:05 -22.65566 135.77501 39130 ft 491 kts 162°
2026-04-24 05:05 -22.71671 135.80804 39119 ft 489 kts 162°
2026-04-24 05:06 -22.77773 135.84107 39125 ft 489 kts 162°
2026-04-24 05:06 -22.83863 135.87405 39135 ft 489 kts 162°
2026-04-24 05:07 -22.89910 135.90685 39122 ft 489 kts 162°
2026-04-24 05:07 -22.96003 135.93993 39122 ft 489 kts 162°
2026-04-24 05:08 -23.02096 135.97305 39136 ft 489 kts 162°
2026-04-24 05:08 -23.08172 136.00612 39124 ft 488 kts 162°
2026-04-24 05:09 -23.14244 136.03919 39122 ft 487 kts 162°
2026-04-24 05:09 -23.20311 136.07225 39120 ft 488 kts 162°
2026-04-24 05:10 -23.26341 136.10515 39136 ft 488 kts 162°
2026-04-24 05:10 -23.32399 136.13824 39124 ft 488 kts 162°
2026-04-24 05:11 -23.38473 136.17146 39129 ft 488 kts 162°
2026-04-24 05:11 -23.44537 136.20467 39125 ft 486 kts 162°
2026-04-24 05:12 -23.50552 136.23763 39124 ft 486 kts 162°
2026-04-24 05:12 -23.56591 136.27075 39123 ft 486 kts 162°
2026-04-24 05:13 -23.65642 136.32045 39130 ft 486 kts 162°
2026-04-24 05:14 -23.71681 136.35366 39136 ft 486 kts 162°
2026-04-24 05:14 -23.77675 136.38667 39124 ft 484 kts 162°
2026-04-24 05:15 -23.83694 136.41985 39135 ft 483 kts 162°
2026-04-24 05:15 -23.89706 136.45301 39133 ft 483 kts 162°
2026-04-24 05:16 -23.95710 136.48616 39130 ft 483 kts 162°
2026-04-24 05:16 -24.01670 136.51910 39134 ft 483 kts 162°
2026-04-24 05:17 -24.07663 136.55228 39129 ft 483 kts 162°
2026-04-24 05:17 -24.13658 136.58548 39132 ft 482 kts 162°
2026-04-24 05:18 -24.19625 136.61859 39131 ft 481 kts 163°
2026-04-24 05:18 -24.25598 136.65174 39132 ft 480 kts 163°
2026-04-24 05:19 -24.31558 136.68486 39132 ft 480 kts 163°
2026-04-24 05:19 -24.37523 136.71803 39132 ft 480 kts 163°
2026-04-24 05:20 -24.43449 136.75104 39134 ft 480 kts 163°
2026-04-24 05:20 -24.49407 136.78426 39136 ft 480 kts 163°
2026-04-24 05:21 -24.55362 136.81752 39134 ft 479 kts 163°
2026-04-24 05:21 -24.61301 136.85070 39132 ft 478 kts 163°
2026-04-24 05:22 -24.67230 136.88386 39134 ft 478 kts 163°
2026-04-24 05:22 -24.73164 136.91707 39135 ft 478 kts 163°
2026-04-24 05:23 -24.79090 136.95029 39134 ft 478 kts 163°
2026-04-24 05:23 -24.84988 136.98338 39158 ft 478 kts 163°
2026-04-24 05:24 -24.90909 137.01666 39137 ft 477 kts 163°
2026-04-24 05:24 -24.96811 137.04985 39139 ft 476 kts 163°
2026-04-24 05:25 -25.02718 137.08309 39142 ft 476 kts 163°
2026-04-24 05:25 -25.08409 137.12246 39144 ft 493 kts 152°
2026-04-24 05:26 -25.13730 137.17114 39140 ft 498 kts 149°
2026-04-24 05:26 -25.18938 137.22104 39137 ft 499 kts 149°
2026-04-24 05:27 -25.24183 137.27142 39141 ft 499 kts 149°
2026-04-24 05:27 -25.29425 137.32153 39143 ft 498 kts 149°
2026-04-24 05:28 -25.34682 137.37169 39148 ft 498 kts 149°
2026-04-24 05:28 -25.39929 137.42179 39148 ft 498 kts 150°
2026-04-24 05:29 -25.45180 137.47200 39153 ft 498 kts 150°
2026-04-24 05:29 -25.50396 137.52193 39175 ft 498 kts 150°
2026-04-24 05:30 -25.55650 137.57229 39154 ft 499 kts 150°
2026-04-24 05:30 -25.60897 137.62265 39155 ft 498 kts 150°
2026-04-24 05:31 -25.66135 137.67299 39157 ft 498 kts 150°
2026-04-24 05:31 -25.71362 137.72327 39156 ft 498 kts 150°
2026-04-24 05:32 -25.76596 137.77369 39158 ft 498 kts 150°
2026-04-24 05:32 -25.81799 137.82387 39162 ft 498 kts 150°
2026-04-24 05:33 -25.87015 137.87426 39161 ft 497 kts 151°
2026-04-24 05:33 -25.92230 137.92468 39155 ft 497 kts 151°
2026-04-24 05:34 -26.00058 138.00044 39155 ft 497 kts 151°
2026-04-24 05:34 -26.05181 138.05159 39163 ft 499 kts 149°
2026-04-24 05:35 -26.10267 138.10401 39158 ft 498 kts 149°
2026-04-24 05:35 -26.15369 138.15652 39163 ft 498 kts 149°
2026-04-24 05:36 -26.20469 138.20875 39163 ft 498 kts 149°
2026-04-24 05:36 -26.25536 138.26060 39164 ft 497 kts 150°
2026-04-24 05:37 -26.30629 138.31277 39162 ft 497 kts 150°
2026-04-24 05:37 -26.35718 138.36496 39164 ft 497 kts 150°
2026-04-24 05:38 -26.40807 138.41724 39163 ft 497 kts 150°
2026-04-24 05:38 -26.45891 138.46953 39166 ft 496 kts 150°
2026-04-24 05:39 -26.50962 138.52176 39161 ft 496 kts 150°
2026-04-24 05:39 -26.56034 138.57406 39174 ft 496 kts 150°
2026-04-24 05:40 -26.61104 138.62640 39164 ft 496 kts 150°
2026-04-24 05:40 -26.66163 138.67869 39164 ft 495 kts 150°
2026-04-24 05:41 -26.71217 138.73103 39162 ft 494 kts 150°
2026-04-24 05:41 -26.76235 138.78303 39162 ft 494 kts 150°
2026-04-24 05:42 -26.81276 138.83532 39162 ft 494 kts 150°
2026-04-24 05:42 -26.86329 138.88781 39168 ft 494 kts 150°
2026-04-24 05:43 -26.91357 138.94015 39165 ft 492 kts 150°
2026-04-24 05:43 -26.96369 138.99238 39166 ft 491 kts 150°
2026-04-24 05:44 -27.01338 139.04419 39168 ft 491 kts 150°
2026-04-24 05:44 -27.06346 139.09647 39178 ft 491 kts 150°
2026-04-24 05:45 -27.11337 139.14867 39162 ft 490 kts 150°
2026-04-24 05:45 -27.15477 139.19201 39163 ft 490 kts 150°
2026-04-24 05:46 -27.20464 139.24426 39171 ft 490 kts 150°
2026-04-24 05:46 -27.25444 139.29651 39173 ft 490 kts 150°
2026-04-24 05:47 -27.30426 139.34886 39170 ft 490 kts 150°
2026-04-24 05:47 -27.35403 139.40122 39183 ft 490 kts 150°
2026-04-24 05:48 -27.40392 139.45378 39171 ft 490 kts 150°
2026-04-24 05:48 -27.45372 139.50632 39173 ft 490 kts 150°
2026-04-24 05:49 -27.50316 139.55854 39176 ft 490 kts 150°
2026-04-24 05:49 -27.55292 139.61118 39176 ft 490 kts 150°
2026-04-24 05:50 -27.60258 139.66377 39178 ft 490 kts 150°
2026-04-24 05:50 -27.65230 139.71648 39193 ft 490 kts 149°
2026-04-24 05:51 -27.70250 139.76962 39186 ft 499 kts 148°
2026-04-24 05:51 -27.75302 139.82328 39183 ft 503 kts 148°
2026-04-24 05:52 -27.80399 139.87766 39184 ft 503 kts 148°
2026-04-24 05:52 -27.85452 139.93160 39183 ft 503 kts 148°
2026-04-24 05:53 -27.90539 139.98592 39191 ft 503 kts 147°
2026-04-24 05:53 -27.95626 140.04031 39183 ft 503 kts 147°
2026-04-24 05:54 -28.00680 140.09439 39195 ft 503 kts 147°
2026-04-24 05:54 -28.05776 140.14897 39184 ft 504 kts 147°
2026-04-24 05:55 -28.10794 140.20497 39209 ft 512 kts 140°
2026-04-24 05:55 -28.15444 140.26580 39177 ft 515 kts 139°
2026-04-24 05:56 -28.20061 140.32806 39192 ft 516 kts 139°
2026-04-24 05:56 -28.24669 140.39051 39194 ft 516 kts 139°
2026-04-24 05:57 -28.29276 140.45287 39200 ft 516 kts 139°
2026-04-24 05:57 -28.33889 140.51529 39202 ft 515 kts 139°
2026-04-24 05:58 -28.38498 140.57770 39196 ft 515 kts 139°
2026-04-24 05:58 -28.43075 140.63977 39201 ft 515 kts 138°
2026-04-24 05:59 -28.47671 140.70222 39198 ft 514 kts 138°
2026-04-24 05:59 -28.52256 140.76462 39197 ft 514 kts 138°
2026-04-24 06:00 -28.56820 140.82683 39202 ft 514 kts 138°
2026-04-24 06:00 -28.61395 140.88925 39221 ft 514 kts 137°
2026-04-24 06:01 -28.65979 140.95191 39202 ft 514 kts 137°
2026-04-24 06:01 -28.70555 141.01456 39208 ft 514 kts 137°
2026-04-24 06:02 -28.75096 141.07692 39211 ft 514 kts 137°
2026-04-24 06:02 -28.79435 141.14226 39214 ft 517 kts 134°
2026-04-24 06:03 -28.83736 141.20789 39214 ft 516 kts 134°
2026-04-24 06:03 -28.88047 141.27331 39218 ft 515 kts 134°
2026-04-24 06:04 -28.92361 141.33873 39222 ft 515 kts 134°
2026-04-24 06:04 -28.96640 141.40367 39225 ft 515 kts 134°
2026-04-24 06:05 -29.00942 141.46906 39222 ft 514 kts 134°
2026-04-24 06:05 -29.05236 141.53441 39230 ft 514 kts 134°
2026-04-24 06:06 -29.09534 141.59993 39231 ft 514 kts 134°
2026-04-24 06:06 -29.14056 141.66900 39238 ft 514 kts 134°
2026-04-24 06:07 -29.18350 141.73467 39237 ft 514 kts 133°
2026-04-24 06:07 -29.22633 141.80028 39237 ft 514 kts 133°
2026-04-24 06:08 -29.26883 141.86550 39246 ft 513 kts 133°
2026-04-24 06:08 -29.31152 141.93110 39249 ft 513 kts 133°
2026-04-24 06:09 -29.35413 141.99667 39252 ft 512 kts 133°
2026-04-24 06:09 -29.39666 142.06223 39263 ft 511 kts 133°
2026-04-24 06:10 -29.43902 142.12766 39247 ft 509 kts 133°
2026-04-24 06:11 -29.50201 142.22511 39247 ft 508 kts 133°
2026-04-24 06:11 -29.54412 142.29038 39261 ft 508 kts 132°
2026-04-24 06:12 -29.58625 142.35579 39261 ft 507 kts 132°
2026-04-24 06:12 -29.62817 142.42099 39261 ft 507 kts 132°
2026-04-24 06:13 -29.66976 142.48576 39259 ft 507 kts 132°
2026-04-24 06:13 -29.71161 142.55105 39269 ft 506 kts 132°
2026-04-24 06:14 -29.75329 142.61619 39265 ft 505 kts 132°
2026-04-24 06:14 -29.79501 142.68147 39268 ft 505 kts 132°
2026-04-24 06:15 -29.83657 142.74662 39270 ft 505 kts 131°
2026-04-24 06:15 -29.87807 142.81178 39274 ft 503 kts 131°
2026-04-24 06:16 -29.91943 142.87684 39277 ft 503 kts 131°
2026-04-24 06:16 -29.96049 142.94151 39276 ft 503 kts 131°
2026-04-24 06:17 -30.00178 143.00665 39280 ft 503 kts 131°
2026-04-24 06:17 -30.04303 143.07183 39284 ft 501 kts 131°
2026-04-24 06:18 -30.08417 143.13694 39285 ft 501 kts 131°
2026-04-24 06:18 -30.11827 143.19100 39288 ft 501 kts 130°
2026-04-24 06:19 -30.15928 143.25609 39303 ft 501 kts 130°
2026-04-24 06:19 -30.20683 143.33171 39293 ft 500 kts 130°
2026-04-24 06:20 -30.24771 143.39682 39292 ft 500 kts 130°
2026-04-24 06:20 -30.28854 143.46197 39292 ft 500 kts 130°
2026-04-24 06:21 -30.32245 143.51615 39301 ft 499 kts 130°
2026-04-24 06:21 -30.36317 143.58132 39291 ft 499 kts 130°
2026-04-24 06:22 -30.40357 143.64609 39299 ft 498 kts 130°
2026-04-24 06:22 -30.44414 143.71122 39299 ft 498 kts 130°
2026-04-24 06:23 -30.48473 143.77648 39310 ft 497 kts 129°
2026-04-24 06:23 -30.52506 143.84146 39301 ft 496 kts 129°
2026-04-24 06:24 -30.56538 143.90651 39298 ft 496 kts 129°
2026-04-24 06:24 -30.60565 143.97159 39307 ft 496 kts 129°
2026-04-24 06:25 -30.64277 144.03874 39225 ft 498 kts 123°
2026-04-24 06:25 -30.67675 144.10875 39163 ft 500 kts 123°
2026-04-24 06:26 -30.71075 144.17946 39168 ft 500 kts 123°
2026-04-24 06:26 -30.74461 144.25011 39364 ft 498 kts 122°
2026-04-24 06:27 -30.77827 144.32049 39387 ft 497 kts 122°
2026-04-24 06:27 -30.81175 144.39062 39388 ft 497 kts 122°
2026-04-24 06:28 -30.84534 144.46111 39393 ft 497 kts 122°
2026-04-24 06:28 -30.87880 144.53146 39394 ft 496 kts 122°
2026-04-24 06:29 -30.91190 144.60135 39391 ft 496 kts 122°
2026-04-24 06:29 -30.94189 144.67408 39395 ft 498 kts 118°
2026-04-24 06:30 -30.97089 144.74733 39393 ft 498 kts 118°
2026-04-24 06:30 -30.99970 144.82049 39398 ft 496 kts 118°
2026-04-24 06:31 -31.02838 144.89349 39380 ft 496 kts 118°
2026-04-24 06:31 -31.04273 144.93009 39277 ft 496 kts 118°
2026-04-24 06:31 -31.05701 144.96655 39128 ft 495 kts 118°
2026-04-24 06:31 -31.07125 145.00294 38877 ft 493 kts 118°
2026-04-24 06:32 -31.08550 145.03941 38614 ft 492 kts 118°
2026-04-24 06:32 -31.09973 145.07585 38333 ft 492 kts 118°
2026-04-24 06:32 -31.11378 145.11184 38057 ft 492 kts 118°
2026-04-24 06:32 -31.12821 145.14886 37773 ft 493 kts 118°
2026-04-24 06:33 -31.14224 145.18491 37542 ft 494 kts 118°
2026-04-24 06:33 -31.15648 145.22150 37272 ft 495 kts 118°
2026-04-24 06:33 -31.17065 145.25800 37001 ft 489 kts 118°
2026-04-24 06:33 -31.18453 145.29382 36765 ft 485 kts 118°
2026-04-24 06:34 -31.19842 145.32965 36508 ft 483 kts 118°
2026-04-24 06:34 -31.21235 145.36558 36258 ft 484 kts 118°
2026-04-24 06:34 -31.22628 145.40156 36013 ft 485 kts 118°
2026-04-24 06:34 -31.24017 145.43747 35776 ft 486 kts 118°
2026-04-24 06:35 -31.25408 145.47350 35524 ft 487 kts 118°
2026-04-24 06:35 -31.26803 145.50965 35272 ft 488 kts 118°
2026-04-24 06:35 -31.28196 145.54579 35058 ft 488 kts 118°
2026-04-24 06:35 -31.29587 145.58193 34832 ft 488 kts 118°
2026-04-24 06:36 -31.30977 145.61808 34587 ft 488 kts 118°
2026-04-24 06:36 -31.32374 145.65444 34347 ft 489 kts 118°
2026-04-24 06:36 -31.33757 145.69047 34089 ft 490 kts 118°
2026-04-24 06:36 -31.35160 145.72705 33815 ft 491 kts 118°
2026-04-24 06:37 -31.36539 145.76304 33549 ft 491 kts 118°
2026-04-24 06:37 -31.37933 145.79949 33304 ft 491 kts 118°
2026-04-24 06:37 -31.39324 145.83588 33038 ft 490 kts 118°
2026-04-24 06:37 -31.40716 145.87233 32791 ft 490 kts 118°
2026-04-24 06:38 -31.42111 145.90891 32535 ft 491 kts 118°
2026-04-24 06:38 -31.43502 145.94540 32287 ft 491 kts 118°
2026-04-24 06:38 -31.44894 145.98199 32032 ft 492 kts 118°
2026-04-24 06:38 -31.46285 146.01857 31786 ft 492 kts 118°
2026-04-24 06:39 -31.47677 146.05521 31557 ft 492 kts 118°
2026-04-24 06:39 -31.49062 146.09172 31315 ft 491 kts 118°
2026-04-24 06:39 -31.50450 146.12835 31082 ft 490 kts 118°
2026-04-24 06:39 -31.51832 146.16485 30842 ft 491 kts 118°
2026-04-24 06:40 -31.53202 146.20106 30612 ft 491 kts 118°
2026-04-24 06:40 -31.54593 146.23786 30358 ft 492 kts 118°
2026-04-24 06:40 -31.55973 146.27440 30071 ft 492 kts 118°
2026-04-24 06:40 -31.57355 146.31107 29827 ft 490 kts 118°
2026-04-24 06:41 -31.58736 146.34776 29561 ft 487 kts 118°
2026-04-24 06:41 -31.60099 146.38401 29277 ft 484 kts 118°
2026-04-24 06:41 -31.61469 146.42040 29048 ft 491 kts 117°
2026-04-24 06:42 -31.64231 146.49396 28978 ft 492 kts 117°
2026-04-24 06:42 -31.66987 146.56759 28879 ft 492 kts 117°
2026-04-24 06:43 -31.69721 146.64073 28763 ft 492 kts 117°
2026-04-24 06:43 -31.72459 146.71417 28660 ft 491 kts 117°
2026-04-24 06:44 -31.75195 146.78769 28545 ft 490 kts 117°
2026-04-24 06:44 -31.77915 146.86095 28460 ft 488 kts 117°
2026-04-24 06:45 -31.80621 146.93398 28299 ft 486 kts 117°
2026-04-24 06:45 -31.81973 146.97052 28168 ft 485 kts 117°
2026-04-24 06:45 -31.83319 147.00694 28035 ft 484 kts 117°
2026-04-24 06:45 -31.84663 147.04337 27915 ft 484 kts 117°
2026-04-24 06:46 -31.85985 147.07922 27794 ft 482 kts 117°
2026-04-24 06:46 -31.87319 147.11541 27737 ft 482 kts 116°
2026-04-24 06:46 -31.88646 147.15148 27687 ft 479 kts 116°
2026-04-24 06:46 -31.89975 147.18765 27615 ft 479 kts 116°
2026-04-24 06:47 -31.91302 147.22377 27558 ft 479 kts 116°
2026-04-24 06:47 -31.92602 147.25921 27500 ft 478 kts 116°
2026-04-24 06:47 -31.93921 147.29521 27445 ft 478 kts 116°
2026-04-24 06:47 -31.95240 147.33123 27409 ft 478 kts 116°
2026-04-24 06:48 -31.96552 147.36709 27352 ft 477 kts 116°
2026-04-24 06:48 -31.97866 147.40308 27350 ft 477 kts 116°
2026-04-24 06:48 -31.99175 147.43895 27350 ft 476 kts 116°
2026-04-24 06:48 -32.00483 147.47481 27346 ft 476 kts 116°
2026-04-24 06:49 -32.01786 147.51060 27347 ft 476 kts 116°
2026-04-24 06:49 -32.03090 147.54644 27349 ft 476 kts 116°
2026-04-24 06:49 -32.04393 147.58229 27350 ft 476 kts 116°
2026-04-24 06:49 -32.05693 147.61809 27349 ft 476 kts 116°
2026-04-24 06:50 -32.06994 147.65396 27362 ft 476 kts 116°
2026-04-24 06:50 -32.08295 147.68990 27353 ft 475 kts 116°
2026-04-24 06:50 -32.09569 147.72512 27352 ft 474 kts 116°
2026-04-24 06:50 -32.10868 147.76108 27352 ft 474 kts 116°
2026-04-24 06:51 -32.12161 147.79690 27352 ft 474 kts 116°
2026-04-24 06:51 -32.13456 147.83280 27355 ft 474 kts 116°
2026-04-24 06:51 -32.14746 147.86861 27356 ft 474 kts 116°
2026-04-24 06:51 -32.16030 147.90430 27356 ft 474 kts 116°
2026-04-24 06:52 -32.17319 147.94012 27361 ft 474 kts 115°
2026-04-24 06:52 -32.18610 147.97608 27364 ft 473 kts 115°
2026-04-24 06:52 -32.19889 148.01174 27360 ft 473 kts 115°
2026-04-24 06:52 -32.21155 148.04707 27350 ft 473 kts 115°
2026-04-24 06:53 -32.22435 148.08281 27356 ft 473 kts 115°
2026-04-24 06:53 -32.23717 148.11867 27349 ft 473 kts 115°
2026-04-24 06:53 -32.25002 148.15464 27361 ft 473 kts 115°
2026-04-24 06:53 -32.26279 148.19041 27365 ft 473 kts 115°
2026-04-24 06:54 -32.27554 148.22617 27368 ft 473 kts 115°
2026-04-24 06:54 -32.28830 148.26202 27373 ft 472 kts 115°
2026-04-24 06:54 -32.30104 148.29785 27376 ft 472 kts 115°
2026-04-24 06:54 -32.31373 148.33354 27380 ft 472 kts 115°
2026-04-24 06:55 -32.32626 148.36887 27382 ft 472 kts 115°
2026-04-24 06:55 -32.33898 148.40475 27386 ft 472 kts 115°
2026-04-24 06:55 -32.35168 148.44059 27361 ft 472 kts 115°
2026-04-24 06:55 -32.36435 148.47643 27360 ft 472 kts 115°
2026-04-24 06:56 -32.37706 148.51237 27364 ft 473 kts 115°
2026-04-24 06:56 -32.38976 148.54833 27363 ft 473 kts 115°
2026-04-24 06:56 -32.40244 148.58430 27362 ft 473 kts 115°
2026-04-24 06:56 -32.41508 148.62018 27368 ft 473 kts 115°
2026-04-24 06:57 -32.42773 148.65612 27368 ft 473 kts 115°
2026-04-24 06:57 -32.44038 148.69212 27368 ft 473 kts 115°
2026-04-24 06:57 -32.45282 148.72756 27370 ft 473 kts 115°
2026-04-24 06:57 -32.46544 148.76354 27381 ft 473 kts 114°
2026-04-24 06:58 -32.47805 148.79952 27371 ft 473 kts 114°
2026-04-24 06:58 -32.49078 148.83591 27376 ft 473 kts 114°
2026-04-24 06:58 -32.50325 148.87158 27376 ft 473 kts 114°
2026-04-24 06:58 -32.51583 148.90760 27377 ft 473 kts 114°
2026-04-24 06:59 -32.52840 148.94362 27381 ft 473 kts 114°
2026-04-24 06:59 -32.54098 148.97972 27382 ft 473 kts 114°
2026-04-24 06:59 -32.55349 149.01567 27382 ft 473 kts 114°
2026-04-24 06:59 -32.56604 149.05178 27391 ft 473 kts 114°
2026-04-24 07:00 -32.57861 149.08796 27388 ft 473 kts 114°
2026-04-24 07:00 -32.59114 149.12410 27390 ft 473 kts 114°
2026-04-24 07:00 -32.60364 149.16018 27390 ft 473 kts 114°
2026-04-24 07:00 -32.61611 149.19619 27390 ft 473 kts 114°
2026-04-24 07:01 -32.62860 149.23231 27389 ft 473 kts 114°
2026-04-24 07:01 -32.64107 149.26841 27395 ft 473 kts 114°
2026-04-24 07:01 -32.65354 149.30454 27396 ft 473 kts 114°
2026-04-24 07:01 -32.66599 149.34069 27395 ft 473 kts 114°
2026-04-24 07:02 -32.67849 149.37699 27400 ft 473 kts 114°
2026-04-24 07:02 -32.69092 149.41317 27401 ft 473 kts 114°
2026-04-24 07:02 -32.70337 149.44941 27400 ft 473 kts 114°
2026-04-24 07:02 -32.71578 149.48560 27387 ft 473 kts 114°
2026-04-24 07:03 -32.72807 149.52148 27175 ft 464 kts 114°
2026-04-24 07:03 -32.74014 149.55675 26919 ft 458 kts 114°
2026-04-24 07:03 -32.75211 149.59174 26688 ft 454 kts 113°
2026-04-24 07:03 -32.76376 149.62586 26467 ft 441 kts 113°
2026-04-24 07:04 -32.77516 149.65930 26214 ft 429 kts 113°
2026-04-24 07:04 -32.78620 149.69172 25966 ft 418 kts 113°
2026-04-24 07:04 -32.79710 149.72373 25736 ft 416 kts 113°
2026-04-24 07:04 -32.80797 149.75564 25488 ft 417 kts 113°
2026-04-24 07:05 -32.81880 149.78752 25239 ft 416 kts 113°
2026-04-24 07:05 -32.82957 149.81924 25012 ft 414 kts 113°
2026-04-24 07:05 -32.84021 149.85061 24784 ft 413 kts 113°
2026-04-24 07:05 -32.85097 149.88234 24557 ft 412 kts 112°
2026-04-24 07:06 -32.86166 149.91391 24325 ft 410 kts 112°
2026-04-24 07:06 -32.87231 149.94540 24106 ft 409 kts 112°
2026-04-24 07:06 -32.88290 149.97673 23839 ft 408 kts 112°
2026-04-24 07:06 -32.88991 149.99751 23661 ft 407 kts 112°
2026-04-24 07:07 -32.90399 150.03926 23300 ft 405 kts 112°
2026-04-24 07:07 -32.91092 150.05982 23133 ft 403 kts 112°
2026-04-24 07:07 -32.93169 150.12154 22604 ft 400 kts 112°
2026-04-24 07:08 -32.94197 150.15216 22334 ft 398 kts 112°
2026-04-24 07:08 -32.95224 150.18273 22082 ft 397 kts 112°
2026-04-24 07:08 -32.96246 150.21323 21827 ft 394 kts 112°
2026-04-24 07:08 -32.97263 150.24359 21569 ft 393 kts 112°
2026-04-24 07:09 -32.98272 150.27374 21309 ft 391 kts 112°
2026-04-24 07:09 -32.99281 150.30394 21056 ft 390 kts 112°
2026-04-24 07:09 -33.00259 150.33317 20869 ft 379 kts 112°
2026-04-24 07:09 -33.01236 150.36243 20485 ft 373 kts 112°
2026-04-24 07:10 -33.02178 150.39068 19997 ft 370 kts 111°
2026-04-24 07:10 -33.03128 150.41917 19567 ft 367 kts 111°
2026-04-24 07:10 -33.04060 150.44719 19172 ft 361 kts 111°
2026-04-24 07:10 -33.04983 150.47494 18696 ft 358 kts 111°
2026-04-24 07:11 -33.05894 150.50237 18248 ft 353 kts 111°
2026-04-24 07:11 -33.06783 150.52912 18015 ft 342 kts 111°
2026-04-24 07:11 -33.07645 150.55513 17731 ft 333 kts 111°
2026-04-24 07:11 -33.08499 150.58094 17130 ft 334 kts 111°
2026-04-24 07:12 -33.09331 150.60606 16501 ft 324 kts 111°
2026-04-24 07:12 -33.10144 150.63063 15882 ft 313 kts 111°
2026-04-24 07:12 -33.10929 150.65438 15285 ft 303 kts 111°
2026-04-24 07:12 -33.11692 150.67749 14678 ft 297 kts 111°
2026-04-24 07:13 -33.12447 150.70033 14056 ft 294 kts 111°
2026-04-24 07:13 -33.13192 150.72291 13404 ft 292 kts 111°
2026-04-24 07:13 -33.13934 150.74539 12778 ft 289 kts 111°
2026-04-24 07:13 -33.14666 150.76759 12148 ft 286 kts 111°
2026-04-24 07:14 -33.15390 150.78957 11536 ft 283 kts 111°
2026-04-24 07:14 -33.16112 150.81151 10939 ft 287 kts 111°
2026-04-24 07:14 -33.16836 150.83355 10608 ft 282 kts 111°
2026-04-24 07:14 -33.17544 150.85510 10353 ft 276 kts 110°
2026-04-24 07:15 -33.18239 150.87649 10226 ft 275 kts 111°
2026-04-24 07:15 -33.18931 150.89780 10099 ft 276 kts 111°
2026-04-24 07:15 -33.19631 150.91913 9993 ft 275 kts 111°
2026-04-24 07:15 -33.20326 150.94011 9967 ft 275 kts 111°
2026-04-24 07:16 -33.21022 150.96132 9980 ft 276 kts 110°
2026-04-24 07:16 -33.21717 150.98265 9947 ft 275 kts 111°
2026-04-24 07:16 -33.22414 151.00389 9943 ft 275 kts 111°
2026-04-24 07:16 -33.23236 151.02458 9819 ft 275 kts 122°
2026-04-24 07:17 -33.24570 151.04085 9684 ft 275 kts 145°
2026-04-24 07:17 -33.26347 151.04943 9503 ft 281 kts 165°
2026-04-24 07:17 -33.28276 151.05358 9232 ft 283 kts 168°
2026-04-24 07:17 -33.30219 151.05703 8954 ft 282 kts 168°
2026-04-24 07:18 -33.32162 151.06049 8657 ft 281 kts 168°
2026-04-24 07:18 -33.34093 151.06404 8361 ft 280 kts 168°
2026-04-24 07:18 -33.36013 151.06756 8074 ft 279 kts 169°
2026-04-24 07:18 -33.37951 151.06910 7879 ft 280 kts 176°
2026-04-24 07:19 -33.39895 151.06938 7455 ft 280 kts 177°
2026-04-24 07:19 -33.41842 151.06946 7068 ft 278 kts 177°
2026-04-24 07:19 -33.43778 151.06956 6711 ft 277 kts 177°
2026-04-24 07:19 -33.45678 151.06968 6367 ft 276 kts 177°
2026-04-24 07:20 -33.47590 151.06981 6063 ft 274 kts 177°
2026-04-24 07:20 -33.49526 151.06996 5956 ft 274 kts 176°
2026-04-24 07:20 -33.51423 151.07010 5650 ft 271 kts 176°
2026-04-24 07:20 -33.53275 151.07052 5332 ft 265 kts 174°
2026-04-24 07:21 -33.55060 151.07358 5177 ft 251 kts 166°
2026-04-24 07:21 -33.56710 151.07769 4913 ft 234 kts 165°
2026-04-24 07:21 -33.58243 151.08165 4811 ft 216 kts 165°
2026-04-24 07:21 -33.59693 151.08552 4831 ft 212 kts 165°
2026-04-24 07:22 -33.61114 151.08923 4672 ft 208 kts 165°
2026-04-24 07:22 -33.62480 151.09276 4418 ft 194 kts 164°
2026-04-24 07:22 -33.63776 151.09610 4169 ft 190 kts 164°
2026-04-24 07:22 -33.65060 151.09941 3919 ft 188 kts 164°
2026-04-24 07:23 -33.66336 151.10269 3671 ft 186 kts 163°
2026-04-24 07:23 -33.67595 151.10592 3428 ft 184 kts 164°
2026-04-24 07:23 -33.68846 151.10915 3176 ft 182 kts 165°
2026-04-24 07:23 -33.70087 151.11235 2995 ft 183 kts 165°
2026-04-24 07:24 -33.71322 151.11555 2976 ft 183 kts 165°
2026-04-24 07:24 -33.72566 151.11880 2970 ft 182 kts 165°
2026-04-24 07:24 -33.73795 151.12198 2971 ft 183 kts 165°
2026-04-24 07:24 -33.75038 151.12520 2968 ft 183 kts 165°
2026-04-24 07:25 -33.76280 151.12841 2984 ft 183 kts 164°
2026-04-24 07:25 -33.77524 151.13163 2986 ft 179 kts 165°
2026-04-24 07:25 -33.78725 151.13472 2888 ft 175 kts 164°
2026-04-24 07:25 -33.79902 151.13777 2656 ft 171 kts 164°
2026-04-24 07:26 -33.81057 151.14077 2425 ft 168 kts 164°
2026-04-24 07:26 -33.82196 151.14372 2187 ft 167 kts 164°
2026-04-24 07:26 -33.83299 151.14658 1960 ft 157 kts 164°
2026-04-24 07:26 -33.84334 151.14926 1756 ft 147 kts 165°
2026-04-24 07:27 -33.85306 151.15177 1569 ft 138 kts 163°
2026-04-24 07:27 -33.86232 151.15419 1392 ft 136 kts 165°
2026-04-24 07:27 -33.87148 151.15657 1221 ft 136 kts 163°
2026-04-24 07:27 -33.88077 151.15899 1040 ft 136 kts 163°
2026-04-24 07:28 -33.89001 151.16140 841 ft 136 kts 164°
2026-04-24 07:28 -33.89925 151.16379 675 ft 136 kts 164°
2026-04-24 07:28 -33.90844 151.16619 478 ft 133 kts 165°
2026-04-24 07:28 -33.91761 151.16856 296 ft 133 kts 164°
2026-04-24 07:29 -33.92687 151.17084 164 ft 141 kts 165°
2026-04-24 07:29 -33.93635 151.17337 25 ft 134 kts 165°
2026-04-24 07:29 -33.94338 151.17525 31 ft 65 kts 169°
2026-04-24 07:29 -33.94709 151.17619 29 ft 52 kts 167°
2026-04-24 07:30 -33.95043 151.17640 29 ft 42 kts 189°
2026-04-24 07:30 -33.95136 151.17602 29 ft 8 kts 227°
2026-04-24 07:30 -33.95135 151.17552 28 ft 5 kts 306°
2026-04-24 07:30 -33.95110 151.17525 27 ft 3 kts 337°
2026-04-24 07:31 -33.95058 151.17506 25 ft 12 kts 346°
2026-04-24 07:31 -33.94972 151.17483 29 ft 14 kts 347°
2026-04-24 07:31 -33.94874 151.17457 29 ft 14 kts 349°
2026-04-24 07:31 -33.94797 151.17438 28 ft 8 kts 348°
2026-04-24 07:32 -33.94763 151.17430 30 ft 2 kts 348°
2026-04-24 07:32 -33.94750 151.17427 30 ft 8 kts 348°
2026-04-24 07:32 -33.94633 151.17396 32 ft 23 kts 347°
2026-04-24 07:32 -33.94500 151.17361 32 ft 13 kts 347°
2026-04-24 07:33 -33.94399 151.17335 32 ft 17 kts 347°
2026-04-24 07:33 -33.94292 151.17307 30 ft 2 kts 348°
2026-04-24 07:34 -33.94287 151.17306 30 ft 3 kts 348°
2026-04-24 07:35 -33.94283 151.17305 30 ft 1 kts 348°
2026-04-24 07:35 -33.94265 151.17300 29 ft 3 kts 348°
2026-04-24 07:35 -33.94214 151.17286 28 ft 12 kts 346°
2026-04-24 07:35 -33.94113 151.17260 28 ft 18 kts 348°
2026-04-24 07:36 -33.94000 151.17222 32 ft 15 kts 319°
2026-04-24 07:36 -33.93999 151.17099 31 ft 17 kts 253°
2026-04-24 07:36 -33.94037 151.16941 27 ft 22 kts 254°
2026-04-24 07:36 -33.94051 151.16819 27 ft 14 kts 292°
2026-04-24 07:37 -33.93993 151.16706 27 ft 15 kts 302°
2026-04-24 07:37 -33.93987 151.16695 27 ft 0 kts 302°
2026-04-24 07:37 -33.93985 151.16692 27 ft 3 kts 303°
2026-04-24 07:38 -33.93980 151.16682 27 ft 0 kts 303°